IU1OLT-2 Weather Reports


time (UTC)temp
F
wind
direction
speed
knots
gust
knots
rain 1hr
in
rain 24hr
in
rain mn
in
humidity
%
barometer
mb
20260902163644 79 115 1.7 3.5 0.00 0.00 0.00 76 1018.0
20260902162140 80 102 1.7 3.5 0.00 0.00 0.00 76 1018.0
20260902160636 80 115 1.7 4.3 0.00 0.00 0.00 75 1018.0
20260902155133 80 104 1.7 4.3 0.00 0.00 0.00 75 1018.0
20260902153629 80 108 1.7 4.3 0.00 0.00 0.00 74 1018.0
20260902152125 80 121 1.7 5.2 0.00 0.00 0.00 74 1018.0
20260902150621 81 119 1.7 4.3 0.00 0.00 0.00 73 1018.0
20260902145117 81 116 2.6 4.3 0.00 0.00 0.00 72 1018.0
20260902143614 81 120 1.7 0.0 0.00 0.00 0.00 72 1018.0
20260902142110 81 109 2.6 5.2 0.00 0.00 0.00 72 1018.0
20260902135102 81 122 2.6 5.2 0.00 0.00 0.00 72 1018.0
20260902125047 83 120 2.6 6.1 0.00 0.00 0.00 68 1018.0
20260902122039 82 121 3.5 5.2 0.00 0.00 0.00 69 1018.0
20260902121351 83 116 1.7 1.7 0.00 0.00 0.00 69 1018.0
20260902103054 82 125 2.6 6.1 0.00 0.00 0.00 69 1018.0
20260902100046 83 121 2.6 5.2 0.00 0.00 0.00 65 1018.0
20260902083527 83 132 0.0 0.0 0.00 0.00 0.00 59 1018.0
20260902081737 81 132 1.7 1.7 0.00 0.00 0.00 62 1018.0
20260902081015 81 132 1.7 1.7 0.00 0.00 0.00 65 1018.0
20260902065739 32 142 1.7 1.7 0.00 0.00 0.00 1 1018.0
20260902055356 69 142 0.0 0.0 0.00 0.00 0.00 83 1018.0
20260902055332 69 141 1.7 0.0 0.00 0.00 0.00 83 1018.0
20260902055253 69 141 1.7 0.0 0.00 0.00 0.00 83 1018.0
20260902055211 69 141 1.7 0.0 0.00 0.00 0.00 83 1018.0
20260902055140 69 300 1.7 0.0 0.00 0.00 0.00 83 1018.0
20260902055041 69 300 0.0 0.0 0.00 0.00 0.00 83 1018.0
20260902055030 69 300 1.7 0.0 0.00 0.00 0.00 83 1018.0
20260902054959 69 300 1.7 0.0 0.00 0.00 0.00 83 1018.0
20260902054949 69 300 2.6 0.0 0.00 0.00 0.00 83 1018.0
20260902054917 69 300 2.6 0.0 0.00 0.00 0.00 83 1018.0
20260902054853 69 311 3.5 0.0 0.00 0.00 0.00 83 1018.0
20260902054830 69 154 1.7 0.0 0.00 0.00 0.00 84 1018.0
20260902054747 69 154 1.7 0.0 0.00 0.00 0.00 84 1018.0
20260902054715 69 154 1.7 0.0 0.00 0.00 0.00 84 1018.0
20260902054637 69 154 0.9 0.0 0.00 0.00 0.00 84 1018.0
20260902054627 69 154 0.9 0.9 0.00 0.00 0.00 84 1018.0
20260902054555 69 186 0.0 0.0 0.00 0.00 0.00 84 1018.0
20260902054545 69 192 0.9 0.0 0.00 0.00 0.00 84 1018.0
20260902054507 69 192 0.9 0.0 0.00 0.00 0.00 84 1018.0
20260902054456 69 162 1.7 0.0 0.00 0.00 0.00 84 1018.0
20260902054418 69 162 1.7 0.0 0.00 0.00 0.00 84 1018.0
20260902054357 69 150 1.7 0.0 0.00 0.00 0.00 85 1018.0
20260902054330 69 144 2.6 0.0 0.00 0.00 0.00 85 1018.0
20260902054251 69 126 1.7 0.0 0.00 0.00 0.00 85 1018.0
20260902054155 69 120 2.6 0.0 0.00 0.00 0.00 85 1018.0
20260902054145 69 131 1.7 0.0 0.00 0.00 0.00 86 1018.0
20260902054025 69 131 1.7 0.0 0.00 0.00 0.00 86 1018.0
20260902054014 69 131 1.7 1.7 0.00 0.00 0.00 86 1018.0
20260902053953 69 131 0.9 0.0 0.00 0.00 0.00 85 1018.0
20260902053940 69 131 0.9 0.9 0.00 0.00 0.00 85 1018.0
20260902053908 69 131 1.7 0.0 0.00 0.00 0.00 85 1018.0
20260902053837 69 124 2.6 0.0 0.00 0.00 0.00 85 1018.0
20260902053759 69 124 1.7 0.0 0.00 0.00 0.00 85 1018.0
20260902053748 69 137 1.7 0.0 0.00 0.00 0.00 85 1018.0
20260902053717 69 137 1.7 0.0 0.00 0.00 0.00 85 1018.0
20260902053703 69 137 1.7 1.7 0.00 0.00 0.00 85 1018.0
20260902053639 69 186 1.7 0.0 0.00 0.00 0.00 85 1018.0
20260902053628 69 186 1.7 1.7 0.00 0.00 0.00 85 1018.0
20260902053553 69 210 4.3 0.0 0.00 0.00 0.00 85 1018.0
20260902053512 69 125 3.5 0.0 0.00 0.00 0.00 85 1018.0
20260902053437 69 126 4.3 0.0 0.00 0.00 0.00 83 1018.0
20260902053426 69 126 4.3 4.3 0.00 0.00 0.00 83 1018.0
20260902053352 69 136 3.5 0.0 0.00 0.00 0.00 83 1018.0
20260902053341 69 136 3.5 3.5 0.00 0.00 0.00 83 1018.0
20260902053327 69 120 2.6 0.0 0.00 0.00 0.00 83 1018.0
20260902053256 69 120 2.6 0.0 0.00 0.00 0.00 83 1018.0
20260902053218 69 120 2.6 0.0 0.00 0.00 0.00 83 1018.0
20260902053147 70 143 1.7 0.0 0.00 0.00 0.00 82 1018.0
20260902053111 70 108 3.5 0.0 0.00 0.00 0.00 82 1018.0
20260902053058 70 311 1.7 0.0 0.00 0.00 0.00 82 1018.0
20260902053023 70 311 1.7 0.0 0.00 0.00 0.00 82 1018.0
20260902052951 70 306 4.3 0.0 0.00 0.00 0.00 82 1018.0
20260902052941 70 306 4.3 4.3 0.00 0.00 0.00 82 1018.0
20260902052910 70 300 1.7 0.0 0.00 0.00 0.00 82 1018.0
20260902052859 70 283 0.0 0.0 0.00 0.00 0.00 82 1018.0
20260902052826 70 283 0.0 0.0 0.00 0.00 0.00 82 1018.0
20260902052732 70 283 0.0 0.0 0.00 0.00 0.00 82 1018.0
20260902052701 70 283 0.9 0.0 0.00 0.00 0.00 83 1018.0
20260902052650 70 283 0.9 0.9 0.00 0.00 0.00 83 1018.0
20260902052630 70 283 1.7 0.0 0.00 0.00 0.00 83 1018.0
20260902052544 70 283 0.0 0.0 0.00 0.00 0.00 83 1018.0
20260902052513 70 283 0.9 0.0 0.00 0.00 0.00 83 1018.0
20260902052503 70 283 0.9 0.9 0.00 0.00 0.00 83 1018.0
20260902052452 70 284 0.0 0.0 0.00 0.00 0.00 83 1018.0
20260902052421 70 284 0.0 0.0 0.00 0.00 0.00 83 1018.0
20260902052410 70 284 0.0 0.0 0.00 0.00 0.00 82 1018.0
20260902052326 70 284 0.0 0.0 0.00 0.00 0.00 82 1018.0
20260902052254 69 284 1.7 0.0 0.00 0.00 0.00 83 1018.0
20260902052219 69 284 1.7 0.0 0.00 0.00 0.00 83 1018.0
20260902052148 69 192 1.7 0.0 0.00 0.00 0.00 83 1018.0
20260902052137 69 144 1.7 0.0 0.00 0.00 0.00 83 1018.0
20260902052106 69 144 1.7 0.0 0.00 0.00 0.00 83 1018.0
20260902052017 69 119 1.7 0.0 0.00 0.00 0.00 82 1018.0
20260902051949 69 119 1.7 0.0 0.00 0.00 0.00 83 1018.0
20260902051939 69 119 1.7 1.7 0.00 0.00 0.00 83 1018.0
20260902051908 69 119 1.7 0.0 0.00 0.00 0.00 83 1018.0
20260902051847 69 85 0.0 0.0 0.00 0.00 0.00 83 1018.0
20260902051826 69 85 0.9 0.0 0.00 0.00 0.00 83 1018.0
20260902051755 69 85 0.9 0.0 0.00 0.00 0.00 83 1018.0
20260902051734 69 85 1.7 0.0 0.00 0.00 0.00 84 1018.0
20260902051702 69 85 1.7 0.0 0.00 0.00 0.00 84 1018.0
20260902051631 69 85 1.7 0.0 0.00 0.00 0.00 84 1018.0
20260902051556 69 85 0.0 0.0 0.00 0.00 0.00 84 1018.0
20260902051525 69 85 1.7 0.0 0.00 0.00 0.00 84 1018.0
20260902051514 69 85 1.7 1.7 0.00 0.00 0.00 84 1018.0
20260902051504 69 36 1.7 0.0 0.00 0.00 0.00 84 1018.0
20260902051433 69 36 1.7 0.0 0.00 0.00 0.00 84 1018.0
20260902051401 69 24 0.9 0.0 0.00 0.00 0.00 84 1018.0
20260902051351 69 24 0.9 0.9 0.00 0.00 0.00 84 1018.0
20260902051330 69 24 1.7 0.0 0.00 0.00 0.00 84 1018.0
20260902051245 69 283 2.6 0.0 0.00 0.00 0.00 84 1018.0
20260902051200 69 299 0.9 0.0 0.00 0.00 0.00 84 1018.0
20260902051149 68 299 0.9 0.0 0.00 0.00 0.00 84 1018.0
20260902051118 68 299 0.9 0.0 0.00 0.00 0.00 84 1018.0
20260902051036 68 303 0.0 0.0 0.00 0.00 0.00 84 1018.0
20260902051015 68 303 1.7 0.0 0.00 0.00 0.00 84 1018.0
20260902050944 68 303 1.7 0.0 0.00 0.00 0.00 84 1018.0
20260902050909 68 303 1.7 0.0 0.00 0.00 0.00 84 1018.0
20260902050848 68 305 3.5 0.0 0.00 0.00 0.00 85 1018.0
20260902050838 68 328 2.6 0.0 0.00 0.00 0.00 86 1018.0
20260902050826 68 130 1.7 0.0 0.00 0.00 0.00 86 1018.0
20260902050732 68 130 1.7 0.0 0.00 0.00 0.00 86 1018.0
20260902050700 68 312 1.7 0.0 0.00 0.00 0.00 86 1018.0
20260902050619 68 318 1.7 0.0 0.00 0.00 0.00 86 1018.0
20260902050608 68 318 0.9 0.0 0.00 0.00 0.00 88 1018.0
20260902050530 68 318 0.9 0.0 0.00 0.00 0.00 88 1018.0
20260902050519 68 318 0.0 0.0 0.00 0.00 0.00 89 1018.0
20260902050448 68 318 0.0 0.0 0.00 0.00 0.00 89 1018.0
20260902050417 68 318 0.0 0.0 0.00 0.00 0.00 90 1018.0
20260902050342 68 318 1.7 0.0 0.00 0.00 0.00 90 1018.0
20260902050253 68 318 0.0 0.0 0.00 0.00 0.00 89 1018.0
20260902050232 68 318 1.7 0.0 0.00 0.00 0.00 89 1018.0
20260902050215 68 318 1.7 1.7 0.00 0.00 0.00 89 1018.0
20260902050144 68 318 0.9 0.0 0.00 0.00 0.00 88 1018.0
20260902050112 68 318 0.0 0.0 0.00 0.00 0.00 88 1018.0
20260902050059 69 318 0.0 0.0 0.00 0.00 0.00 88 1018.0
20260902050008 69 318 0.0 0.0 0.00 0.00 0.00 88 1018.0
20260902045858 69 318 0.0 0.0 0.00 0.00 0.00 88 1018.0
20260902045826 69 318 0.0 0.0 0.00 0.00 0.00 88 1018.0
20260902045737 69 318 0.0 0.0 0.00 0.00 0.00 88 1018.0
20260902045705 69 318 0.0 0.0 0.00 0.00 0.00 88 1018.0
20260902045644 69 318 0.0 0.0 0.00 0.00 0.00 87 1018.0
20260902045559 69 318 0.0 0.0 0.00 0.00 0.00 87 1018.0
20260902045524 69 318 0.9 0.0 0.00 0.00 0.00 87 1018.0
20260902045514 69 318 0.9 0.9 0.00 0.00 0.00 87 1018.0
20260902045446 69 318 0.0 0.0 0.00 0.00 0.00 87 1018.0
20260902045415 69 318 0.0 0.0 0.00 0.00 0.00 87 1018.0
20260902045343 69 318 0.0 0.0 0.00 0.00 0.00 87 1018.0
20260902045324 69 318 0.0 0.0 0.00 0.00 0.00 86 1018.0
20260902045241 69 318 0.0 0.0 0.00 0.00 0.00 86 1018.0
20260902045209 69 318 1.7 0.0 0.00 0.00 0.00 83 1018.0
20260902045135 69 318 1.7 0.0 0.00 0.00 0.00 83 1018.0
20260902045114 69 309 1.7 0.0 0.00 0.00 0.00 82 1018.0
20260902045039 69 309 1.7 1.7 0.00 0.00 0.00 82 1018.0
20260902045008 69 288 0.0 0.0 0.00 0.00 0.00 83 1018.0
20260902044936 69 288 0.9 0.0 0.00 0.00 0.00 83 1018.0
20260902044926 69 288 0.9 0.9 0.00 0.00 0.00 83 1018.0
20260902044855 69 288 0.0 0.0 0.00 0.00 0.00 83 1018.0
20260902044844 69 288 1.7 0.0 0.00 0.00 0.00 83 1018.0
20260902044824 69 300 1.7 0.0 0.00 0.00 0.00 84 1018.0
20260902044734 69 300 1.7 0.0 0.00 0.00 0.00 84 1018.0
20260902044703 69 300 1.7 0.0 0.00 0.00 0.00 84 1018.0
20260902044653 69 300 1.7 1.7 0.00 0.00 0.00 84 1018.0
20260902044621 69 288 3.5 0.0 0.00 0.00 0.00 84 1018.0
20260902044550 69 300 0.9 0.0 0.00 0.00 0.00 84 1018.0
20260902044540 69 300 0.9 0.9 0.00 0.00 0.00 84 1018.0
20260902044458 69 300 1.7 0.0 0.00 0.00 0.00 84 1018.0
20260902044437 69 282 1.7 0.0 0.00 0.00 0.00 84 1018.0
20260902044406 69 282 1.7 0.0 0.00 0.00 0.00 84 1018.0
20260902044345 69 276 1.7 0.0 0.00 0.00 0.00 84 1018.0
20260902044324 69 309 0.0 0.0 0.00 0.00 0.00 84 1018.0
20260902044239 69 309 0.0 0.0 0.00 0.00 0.00 84 1018.0
20260902044207 69 309 0.0 0.0 0.00 0.00 0.00 84 1018.0
20260902044136 69 309 0.0 0.0 0.00 0.00 0.00 84 1018.0
20260902044105 69 309 0.0 0.0 0.00 0.00 0.00 84 1018.0
20260902044054 69 306 0.0 0.0 0.00 0.00 0.00 84 1018.0
20260902043959 69 306 0.0 0.0 0.00 0.00 0.00 84 1018.0
20260902043938 69 306 1.7 0.0 0.00 0.00 0.00 84 1018.0
20260902043917 69 306 1.7 1.7 0.00 0.00 0.00 84 1018.0
20260902043845 69 306 0.0 0.0 0.00 0.00 0.00 84 1018.0
20260902043826 69 306 0.0 0.0 0.00 0.00 0.00 85 1018.0
20260902043753 69 306 0.0 0.0 0.00 0.00 0.00 85 1018.0
20260902043743 69 306 0.0 0.0 0.00 0.00 0.00 84 1018.0
20260902043712 69 306 0.0 0.0 0.00 0.00 0.00 84 1018.0
20260902043640 69 306 0.0 0.0 0.00 0.00 0.00 84 1018.0
20260902043630 69 306 1.7 0.0 0.00 0.00 0.00 84 1018.0
20260902043558 69 306 1.7 0.0 0.00 0.00 0.00 84 1018.0
20260902043527 69 305 1.7 0.0 0.00 0.00 0.00 85 1018.0
20260902043517 69 305 1.7 1.7 0.00 0.00 0.00 85 1018.0
20260902043442 69 294 1.7 0.0 0.00 0.00 0.00 85 1018.0
20260902043411 69 150 0.0 0.0 0.00 0.00 0.00 87 1018.0
20260902043339 69 150 0.0 0.0 0.00 0.00 0.00 87 1018.0
20260902043233 69 150 0.0 0.0 0.00 0.00 0.00 86 1018.0
20260902043202 69 150 1.7 0.0 0.00 0.00 0.00 86 1018.0
20260902043148 69 150 0.0 0.0 0.00 0.00 0.00 84 1018.0
20260902043113 69 150 0.0 0.0 0.00 0.00 0.00 84 1018.0
20260902043031 69 148 1.7 0.0 0.00 0.00 0.00 84 1018.0
20260902043000 69 148 0.9 0.0 0.00 0.00 0.00 84 1018.0
20260902042950 69 148 1.7 0.0 0.00 0.00 0.00 84 1018.0
20260902042918 69 148 1.7 0.0 0.00 0.00 0.00 84 1018.0
20260902042847 69 156 1.7 0.0 0.00 0.00 0.00 84 1018.0
20260902042837 70 264 1.7 0.0 0.00 0.00 0.00 83 1018.0
20260902042755 70 264 1.7 0.0 0.00 0.00 0.00 83 1018.0
20260902042723 70 264 1.7 0.0 0.00 0.00 0.00 83 1018.0
20260902042703 70 300 0.0 0.0 0.00 0.00 0.00 83 1018.0
20260902042631 70 300 0.0 0.0 0.00 0.00 0.00 83 1018.0
20260902042556 70 300 1.7 0.0 0.00 0.00 0.00 83 1018.0
20260902042546 70 289 1.7 0.0 0.00 0.00 0.00 83 1018.0
20260902042515 70 289 1.7 0.0 0.00 0.00 0.00 83 1018.0
20260902042504 70 289 1.7 1.7 0.00 0.00 0.00 83 1018.0
20260902042433 70 298 1.7 0.0 0.00 0.00 0.00 83 1018.0
20260902042402 70 299 2.6 0.0 0.00 0.00 0.00 83 1018.0
20260902042351 70 299 2.6 2.6 0.00 0.00 0.00 83 1018.0
20260902042330 70 299 3.5 0.0 0.00 0.00 0.00 83 1018.0
20260902042231 70 312 0.0 0.0 0.00 0.00 0.00 83 1018.0
20260902042200 70 312 0.0 0.0 0.00 0.00 0.00 83 1018.0
20260902042139 70 312 1.7 0.0 0.00 0.00 0.00 83 1018.0
20260902042108 70 312 1.7 0.0 0.00 0.00 0.00 83 1018.0
20260902042043 70 315 0.9 0.0 0.00 0.00 0.00 83 1018.0
20260902042029 70 300 0.0 0.0 0.00 0.00 0.00 83 1018.0
20260902041954 70 300 0.9 0.0 0.00 0.00 0.00 83 1018.0
20260902041923 70 300 1.7 0.0 0.00 0.00 0.00 83 1018.0
20260902041913 70 258 2.6 0.0 0.00 0.00 0.00 83 1018.0
20260902041841 70 258 2.6 0.0 0.00 0.00 0.00 83 1018.0
20260902041819 69 336 1.7 0.0 0.00 0.00 0.00 83 1018.0
20260902041725 69 336 1.7 0.0 0.00 0.00 0.00 83 1018.0
20260902041714 69 336 1.7 1.7 0.00 0.00 0.00 83 1018.0
20260902041643 69 336 2.6 0.0 0.00 0.00 0.00 83 1018.0
20260902041622 69 114 1.7 0.0 0.00 0.00 0.00 83 1018.0
20260902041551 69 102 0.0 0.0 0.00 0.00 0.00 83 1018.0
20260902041520 69 102 0.0 0.0 0.00 0.00 0.00 83 1018.0
20260902041459 69 102 1.7 0.0 0.00 0.00 0.00 83 1018.0
20260902041448 69 102 0.0 0.0 0.00 0.00 0.00 83 1018.0
20260902041438 69 104 1.7 0.0 0.00 0.00 0.00 84 1018.0
20260902041406 69 104 1.7 0.0 0.00 0.00 0.00 84 1018.0
20260902041356 69 114 0.0 0.0 0.00 0.00 0.00 84 1018.0
20260902041325 69 114 0.0 0.0 0.00 0.00 0.00 84 1018.0
20260902041236 69 114 0.0 0.0 0.00 0.00 0.00 84 1018.0
20260902041205 69 114 0.0 0.0 0.00 0.00 0.00 84 1018.0
20260902041133 69 114 0.0 0.0 0.00 0.00 0.00 84 1018.0
20260902041123 69 110 0.0 0.0 0.00 0.00 0.00 84 1018.0
20260902041059 69 110 1.7 0.0 0.00 0.00 0.00 84 1018.0
20260902041024 69 110 1.7 0.0 0.00 0.00 0.00 84 1018.0
20260902040949 69 282 1.7 0.0 0.00 0.00 0.00 84 1018.0
20260902040938 69 282 1.7 1.7 0.00 0.00 0.00 84 1018.0
20260902040907 69 300 0.9 0.0 0.00 0.00 0.00 84 1018.0
20260902040847 70 304 1.7 0.0 0.00 0.00 0.00 83 1018.0
20260902040816 70 304 1.7 0.0 0.00 0.00 0.00 83 1018.0
20260902040737 70 304 1.7 0.0 0.00 0.00 0.00 83 1018.0
20260902040726 70 304 1.7 1.7 0.00 0.00 0.00 83 1018.0
20260902040655 69 303 1.7 0.0 0.00 0.00 0.00 84 1018.0
20260902040624 69 306 0.0 0.0 0.00 0.00 0.00 84 1018.0
20260902040613 69 306 0.9 0.0 0.00 0.00 0.00 83 1018.0
20260902040542 69 306 0.9 0.0 0.00 0.00 0.00 83 1018.0
20260902040504 69 306 1.7 1.7 0.00 0.00 0.00 83 1018.0
20260902040453 69 306 1.7 0.0 0.00 0.00 0.00 83 1018.0
20260902040422 69 306 1.7 0.0 0.00 0.00 0.00 83 1018.0
20260902040401 69 336 1.7 0.0 0.00 0.00 0.00 83 1018.0
20260902040330 69 336 1.7 0.0 0.00 0.00 0.00 83 1018.0
20260902040241 69 336 1.7 0.0 0.00 0.00 0.00 83 1018.0
20260902040210 69 72 0.0 0.0 0.00 0.00 0.00 84 1018.0
20260902040132 69 72 0.0 0.0 0.00 0.00 0.00 84 1018.0
20260902040053 69 72 0.9 0.9 0.00 0.00 0.00 84 1018.0
20260902040025 69 72 0.9 0.0 0.00 0.00 0.00 84 1018.0
20260902040004 69 72 0.0 0.0 0.00 0.00 0.00 84 1018.0
20260902035926 69 72 0.0 0.0 0.00 0.00 0.00 84 1018.0
20260902035916 69 71 1.7 0.0 0.00 0.00 0.00 85 1018.0
20260902035837 69 126 1.7 0.0 0.00 0.00 0.00 85 1018.0
20260902035738 69 126 1.7 0.0 0.00 0.00 0.00 85 1018.0
20260902035653 69 130 0.0 0.0 0.00 0.00 0.00 85 1018.0
20260902035622 69 130 0.0 0.0 0.00 0.00 0.00 85 1018.0
20260902035533 69 130 1.7 0.0 0.00 0.00 0.00 84 1018.0
20260902035512 69 162 0.0 0.0 0.00 0.00 0.00 85 1018.0
20260902035441 69 162 0.0 0.0 0.00 0.00 0.00 85 1018.0
20260902035420 69 162 0.9 0.0 0.00 0.00 0.00 85 1018.0
20260902035409 69 258 0.9 0.0 0.00 0.00 0.00 84 1018.0
20260902035338 69 258 0.9 0.0 0.00 0.00 0.00 84 1018.0
20260902035328 69 258 0.9 0.9 0.00 0.00 0.00 84 1018.0
20260902035315 69 258 0.0 0.0 0.00 0.00 0.00 85 1018.0
20260902035221 69 258 0.0 0.0 0.00 0.00 0.00 85 1018.0
20260902035211 69 258 1.7 0.0 0.00 0.00 0.00 84 1018.0
20260902035140 69 258 1.7 0.0 0.00 0.00 0.00 84 1018.0
20260902035129 69 258 1.7 1.7 0.00 0.00 0.00 84 1018.0
20260902035109 69 132 1.7 0.0 0.00 0.00 0.00 85 1018.0
20260902035051 69 132 1.7 1.7 0.00 0.00 0.00 85 1018.0
20260902035041 69 132 0.9 0.0 0.00 0.00 0.00 85 1018.0
20260902035013 69 136 1.7 0.0 0.00 0.00 0.00 84 1018.0
20260902034941 69 136 1.7 0.0 0.00 0.00 0.00 84 1018.0
20260902034911 69 300 0.9 0.0 0.00 0.00 0.00 84 1018.0
20260902034835 69 300 0.9 0.0 0.00 0.00 0.00 84 1018.0
20260902034746 69 300 1.7 0.0 0.00 0.00 0.00 84 1018.0
20260902034715 69 300 0.9 0.0 0.00 0.00 0.00 84 1018.0
20260902034705 69 300 0.9 0.9 0.00 0.00 0.00 84 1018.0
20260902034633 69 300 0.9 0.0 0.00 0.00 0.00 84 1018.0
20260902034623 69 294 2.6 0.0 0.00 0.00 0.00 84 1018.0
20260902034548 69 294 2.6 0.0 0.00 0.00 0.00 84 1018.0
20260902034538 69 276 1.7 0.0 0.00 0.00 0.00 84 1018.0
20260902034506 69 276 1.7 0.0 0.00 0.00 0.00 84 1018.0
20260902034456 69 162 0.0 0.0 0.00 0.00 0.00 84 1018.0
20260902034421 69 162 0.0 0.0 0.00 0.00 0.00 84 1018.0
20260902034350 69 162 0.0 0.0 0.00 0.00 0.00 84 1018.0
20260902034322 69 294 1.7 0.0 0.00 0.00 0.00 84 1018.0
20260902034312 69 299 1.7 0.0 0.00 0.00 0.00 84 1018.0
20260902034230 69 299 1.7 0.0 0.00 0.00 0.00 84 1018.0
20260902034219 69 294 0.0 0.0 0.00 0.00 0.00 84 1018.0
20260902034148 69 294 0.0 0.0 0.00 0.00 0.00 84 1018.0
20260902034117 69 294 0.0 0.0 0.00 0.00 0.00 84 1018.0
20260902034049 69 294 1.7 0.0 0.00 0.00 0.00 84 1018.0
20260902034039 69 294 1.7 1.7 0.00 0.00 0.00 84 1018.0
20260902034007 69 144 0.9 0.0 0.00 0.00 0.00 84 1018.0
20260902033933 69 144 0.9 0.0 0.00 0.00 0.00 84 1018.0
20260902033922 69 144 0.0 0.0 0.00 0.00 0.00 85 1018.0
20260902033844 69 144 0.0 0.0 0.00 0.00 0.00 85 1018.0
20260902033823 69 138 1.7 0.0 0.00 0.00 0.00 85 1018.0
20260902033812 69 138 1.7 1.7 0.00 0.00 0.00 85 1018.0
20260902033731 69 138 1.7 0.0 0.00 0.00 0.00 85 1018.0
20260902033710 69 156 0.0 0.0 0.00 0.00 0.00 84 1018.0
20260902033638 69 156 0.0 0.0 0.00 0.00 0.00 84 1018.0
20260902033607 70 156 1.7 0.0 0.00 0.00 0.00 84 1018.0
20260902033536 70 156 1.7 0.0 0.00 0.00 0.00 84 1018.0
20260902033501 70 150 0.0 0.0 0.00 0.00 0.00 85 1018.0
20260902033430 70 150 0.0 0.0 0.00 0.00 0.00 85 1018.0
20260902033351 70 150 0.0 0.0 0.00 0.00 0.00 85 1018.0
20260902033331 70 150 1.7 0.0 0.00 0.00 0.00 84 1018.0
20260902033313 70 154 0.0 0.0 0.00 0.00 0.00 84 1018.0
20260902033242 70 154 0.0 0.0 0.00 0.00 0.00 84 1018.0
20260902033231 70 154 0.9 0.0 0.00 0.00 0.00 84 1018.0
20260902033200 70 154 0.9 0.0 0.00 0.00 0.00 84 1018.0
20260902033150 70 154 0.0 0.0 0.00 0.00 0.00 84 1018.0
20260902033115 70 154 0.0 0.0 0.00 0.00 0.00 84 1018.0
20260902033051 70 154 1.7 0.0 0.00 0.00 0.00 84 1018.0
20260902033040 70 154 1.7 1.7 0.00 0.00 0.00 84 1018.0
20260902033005 70 154 1.7 0.0 0.00 0.00 0.00 84 1018.0
20260902032927 70 142 1.7 0.0 0.00 0.00 0.00 84 1018.0
20260902032916 70 142 1.7 1.7 0.00 0.00 0.00 84 1018.0
20260902032842 70 312 1.7 0.0 0.00 0.00 0.00 84 101.8
20260902032831 70 312 0.9 0.0 0.00 0.00 0.00 83 1018.0
20260902032812 70 312 0.9 0.9 0.00 0.00 0.00 83 1018.0
20260902032722 70 312 0.0 0.0 0.00 0.00 0.00 84 1018.0
20260902032650 70 312 1.7 0.0 0.00 0.00 0.00 84 1018.0
20260902032640 70 312 1.7 1.7 0.00 0.00 0.00 84 1018.0
20260902032619 70 316 1.7 0.0 0.00 0.00 0.00 84 1018.0
20260902032537 70 316 1.7 0.0 0.00 0.00 0.00 84 1018.0
20260902032527 70 316 1.7 1.7 0.00 0.00 0.00 84 1018.0
20260902032455 70 316 1.7 0.0 0.00 0.00 0.00 84 1018.0
20260902032424 70 300 3.5 0.0 0.00 0.00 0.00 84 1018.0
20260902032414 70 35 1.7 0.0 0.00 0.00 0.00 84 1018.0
20260902032342 70 35 1.7 0.0 0.00 0.00 0.00 84 1018.0
20260902032312 70 126 1.7 0.0 0.00 0.00 0.00 84 1018.0
20260902032243 70 129 1.7 0.0 0.00 0.00 0.00 84 1018.0
20260902032212 70 129 1.7 0.0 0.00 0.00 0.00 84 1018.0
20260902032151 70 129 0.9 0.0 0.00 0.00 0.00 84 1018.0
20260902032141 70 129 0.9 0.9 0.00 0.00 0.00 84 1018.0
20260902032130 70 126 1.7 0.0 0.00 0.00 0.00 84 1018.0
20260902032055 70 126 1.7 0.0 0.00 0.00 0.00 84 1018.0
20260902032042 70 126 1.7 1.7 0.00 0.00 0.00 84 1018.0
20260902032020 70 131 0.0 0.0 0.00 0.00 0.00 84 1018.0
20260902031946 70 131 0.0 0.0 0.00 0.00 0.00 84 1018.0
20260902031914 70 131 0.0 0.0 0.00 0.00 0.00 84 1018.0
20260902031850 70 131 0.0 0.0 0.00 0.00 0.00 85 1018.0
20260902031809 70 131 0.0 0.0 0.00 0.00 0.00 85 1018.0
20260902031740 70 131 0.0 0.0 0.00 0.00 0.00 84 1018.0
20260902031702 70 131 0.0 0.0 0.00 0.00 0.00 84 1018.0
20260902031631 70 131 0.0 0.0 0.00 0.00 0.00 84 1018.0
20260902031553 70 131 0.0 0.0 0.00 0.00 0.00 84 1018.0
20260902031532 70 305 0.0 0.0 0.00 0.00 0.00 85 1018.0
20260902031500 70 305 0.0 0.0 0.00 0.00 0.00 85 1018.0
20260902031429 70 305 0.0 0.0 0.00 0.00 0.00 85 1018.0
20260902031358 70 305 0.0 0.0 0.00 0.00 0.00 84 1018.0
20260902031319 70 305 2.6 0.0 0.00 0.00 0.00 84 1018.0
20260902031238 70 342 0.0 0.0 0.00 0.00 0.00 84 1018.0
20260902031206 70 342 0.0 0.0 0.00 0.00 0.00 84 1018.0
20260902031135 70 342 0.0 0.0 0.00 0.00 0.00 84 1018.0
20260902031104 70 342 0.0 0.0 0.00 0.00 0.00 84 1018.0
20260902031036 70 342 1.7 0.0 0.00 0.00 0.00 84 1018.0
20260902031005 70 342 3.5 0.0 0.00 0.00 0.00 84 1018.0
20260902030926 70 294 2.6 0.0 0.00 0.00 0.00 84 1018.0
20260902030916 70 294 2.6 2.6 0.00 0.00 0.00 84 1018.0
20260902030844 70 310 1.7 0.0 0.00 0.00 0.00 84 1018.0
20260902030813 70 310 0.0 0.0 0.00 0.00 0.00 84 1018.0
20260902030731 70 310 1.7 0.0 0.00 0.00 0.00 84 1018.0
20260902030700 69 310 1.7 0.0 0.00 0.00 0.00 84 1018.0
20260902030639 69 318 3.5 0.0 0.00 0.00 0.00 84 1018.0
20260902030608 69 318 3.5 0.0 0.00 0.00 0.00 84 1018.0
20260902030557 69 294 0.0 0.0 0.00 0.00 0.00 84 1018.0
20260902030526 69 294 0.0 0.0 0.00 0.00 0.00 84 1018.0
20260902030455 69 294 0.0 0.0 0.00 0.00 0.00 84 1018.0
20260902030444 69 294 1.7 0.0 0.00 0.00 0.00 84 1018.0
20260902030413 69 294 1.7 0.0 0.00 0.00 0.00 84 1018.0
20260902030403 69 294 1.7 1.7 0.00 0.00 0.00 84 1018.0
20260902030331 69 324 3.5 0.0 0.00 0.00 0.00 84 1018.0
20260902030321 69 294 3.5 0.0 0.00 0.00 0.00 85 1018.0
20260902030301 69 318 1.7 0.0 0.00 0.00 0.00 85 1018.0
20260902030222 69 318 1.7 0.0 0.00 0.00 0.00 85 1018.0
20260902030150 69 312 1.7 0.0 0.00 0.00 0.00 85 1018.0
20260902030140 69 312 1.7 1.7 0.00 0.00 0.00 85 1018.0
20260902030112 69 306 1.7 0.0 0.00 0.00 0.00 85 1018.0
20260902030034 70 312 3.5 0.0 0.00 0.00 0.00 84 1018.0
20260902025945 70 288 4.3 0.0 0.00 0.00 0.00 84 1018.0
20260902025914 70 294 2.6 0.0 0.00 0.00 0.00 85 1018.0
20260902025903 70 294 2.6 2.6 0.00 0.00 0.00 85 1018.0
20260902025842 70 298 0.0 0.0 0.00 0.00 0.00 85 1018.0
20260902025759 70 298 0.0 0.0 0.00 0.00 0.00 85 1018.0
20260902025708 70 298 0.9 0.0 0.00 0.00 0.00 85 1018.0
20260902025658 70 316 3.5 0.0 0.00 0.00 0.00 84 1018.0
20260902025627 70 316 3.5 0.0 0.00 0.00 0.00 84 1018.0
20260902025616 70 316 3.5 3.5 0.00 0.00 0.00 84 1018.0
20260902025545 70 264 3.5 0.0 0.00 0.00 0.00 84 1018.0
20260902025514 70 305 1.7 0.0 0.00 0.00 0.00 84 1018.0
20260902025503 70 305 1.7 1.7 0.00 0.00 0.00 84 1018.0
20260902025432 70 305 1.7 0.0 0.00 0.00 0.00 84 1018.0
20260902025401 70 305 2.6 0.0 0.00 0.00 0.00 84 1018.0
20260902025350 70 305 2.6 2.6 0.00 0.00 0.00 84 1018.0
20260902025319 69 306 2.6 0.0 0.00 0.00 0.00 85 1018.0
20260902025308 69 316 1.7 0.0 0.00 0.00 0.00 85 1018.0
20260902025259 69 316 1.7 1.7 0.00 0.00 0.00 85 1018.0
20260902025209 69 316 0.0 0.0 0.00 0.00 0.00 85 1018.0
20260902025159 69 312 1.7 0.0 0.00 0.00 0.00 85 1018.0
20260902025127 69 312 1.7 0.0 0.00 0.00 0.00 85 1018.0
20260902025117 69 312 1.7 1.7 0.00 0.00 0.00 85 1018.0
20260902025046 69 312 2.6 0.0 0.00 0.00 0.00 85 1018.0
20260902025025 69 321 1.7 0.0 0.00 0.00 0.00 85 1018.0
20260902025000 69 322 5.2 0.0 0.00 0.00 0.00 85 1018.0
20260902024922 69 322 5.2 0.0 0.00 0.00 0.00 85 1018.0
20260902024851 69 300 4.3 0.0 0.00 0.00 0.00 85 1018.0
20260902024840 69 300 4.3 4.3 0.00 0.00 0.00 85 1018.0
20260902024816 69 318 3.5 0.0 0.00 0.00 0.00 85 1018.0
20260902024755 69 321 2.6 0.0 0.00 0.00 0.00 85 1018.0
20260902024703 69 318 5.2 0.0 0.00 0.00 0.00 85 1018.0
20260902024652 69 318 5.2 5.2 0.00 0.00 0.00 85 1018.0
20260902024621 69 299 1.7 0.0 0.00 0.00 0.00 85 1018.0
20260902024539 69 300 0.0 0.0 0.00 0.00 0.00 85 1018.0
20260902024455 69 300 2.6 0.0 0.00 0.00 0.00 86 1018.0
20260902024419 69 303 3.5 0.0 0.00 0.00 0.00 86 1018.0
20260902024409 69 277 1.7 0.0 0.00 0.00 0.00 86 1018.0
20260902024338 69 277 1.7 0.0 0.00 0.00 0.00 86 1018.0
20260902024327 69 277 1.7 1.7 0.00 0.00 0.00 86 1018.0
20260902024306 69 276 0.0 0.0 0.00 0.00 0.00 87 1018.0
20260902024225 69 276 0.9 0.0 0.00 0.00 0.00 87 1018.0
20260902024214 69 276 0.9 0.9 0.00 0.00 0.00 87 1018.0
20260902024143 69 276 2.6 0.0 0.00 0.00 0.00 89 1018.0
20260902024115 69 294 0.9 0.0 0.00 0.00 0.00 89 1018.0
20260902024101 69 294 0.0 0.0 0.00 0.00 0.00 88 1018.0
20260902024026 69 294 0.0 0.0 0.00 0.00 0.00 88 1018.0
20260902023951 69 294 0.0 0.0 0.00 0.00 0.00 88 1018.0
20260902023917 69 294 0.9 0.9 0.00 0.00 0.00 88 1018.0
20260902023906 69 294 0.0 0.0 0.00 0.00 0.00 88 1018.0
20260902023831 69 294 0.0 0.0 0.00 0.00 0.00 88 1018.0
20260902023807 69 294 1.7 0.0 0.00 0.00 0.00 88 1018.0
20260902023725 70 294 1.7 0.0 0.00 0.00 0.00 86 1018.0
20260902023715 70 294 1.7 1.7 0.00 0.00 0.00 86 1018.0
20260902023643 70 294 1.7 0.0 0.00 0.00 0.00 86 1018.0
20260902023612 70 299 0.0 0.0 0.00 0.00 0.00 86 1018.0
20260902023551 70 300 0.0 0.0 0.00 0.00 0.00 86 1018.0
20260902023520 70 300 0.0 0.0 0.00 0.00 0.00 86 1018.0
20260902023449 70 300 0.0 0.0 0.00 0.00 0.00 86 1018.0
20260902023417 70 300 0.0 0.0 0.00 0.00 0.00 86 1018.0
20260902023346 70 300 0.0 0.0 0.00 0.00 0.00 86 1018.0
20260902023315 70 300 0.0 0.0 0.00 0.00 0.00 86 1018.0
20260902023226 70 300 1.7 0.0 0.00 0.00 0.00 86 1018.0
20260902023216 70 300 1.7 1.7 0.00 0.00 0.00 86 1018.0
20260902023205 69 306 3.5 0.0 0.00 0.00 0.00 85 1018.0
20260902023134 69 306 3.5 0.0 0.00 0.00 0.00 85 1018.0
20260902023056 69 306 3.5 0.0 0.00 0.00 0.00 85 1018.0
20260902023021 69 294 2.6 0.0 0.00 0.00 0.00 85 1018.0
20260902022942 69 304 4.3 0.0 0.00 0.00 0.00 85 1018.0
20260902022911 69 258 0.0 0.0 0.00 0.00 0.00 85 1018.0
20260902022850 69 258 1.7 0.0 0.00 0.00 0.00 87 1018.0
20260902022829 69 258 1.7 1.7 0.00 0.00 0.00 87 1018.0
20260902022805 69 306 2.6 0.0 0.00 0.00 0.00 87 1018.0
20260902022753 69 114 0.0 0.0 0.00 0.00 0.00 87 1018.0
20260902022702 69 114 0.0 0.0 0.00 0.00 0.00 87 1018.0
20260902022631 69 114 0.0 0.0 0.00 0.00 0.00 87 1018.0
20260902022621 69 96 1.7 0.0 0.00 0.00 0.00 87 1018.0
20260902022549 69 96 1.7 0.0 0.00 0.00 0.00 87 1018.0
20260902022539 69 96 1.7 1.7 0.00 0.00 0.00 87 1018.0
20260902022507 69 87 0.9 0.0 0.00 0.00 0.00 87 1018.0
20260902022436 69 87 0.0 0.0 0.00 0.00 0.00 87 1018.0
20260902022426 69 87 1.7 0.0 0.00 0.00 0.00 87 1018.0
20260902022354 69 87 1.7 0.0 0.00 0.00 0.00 87 1018.0
20260902022333 69 87 0.0 0.0 0.00 0.00 0.00 88 1018.0
20260902022305 69 90 0.0 0.0 0.00 0.00 0.00 88 1018.0
20260902022253 69 89 0.0 0.0 0.00 0.00 0.00 89 1018.0
20260902022203 69 89 0.0 0.0 0.00 0.00 0.00 89 1018.0
20260902022132 69 90 0.9 0.0 0.00 0.00 0.00 89 1018.0
20260902022111 69 90 0.0 0.0 0.00 0.00 0.00 90 1018.0
20260902022039 69 90 0.0 0.0 0.00 0.00 0.00 90 1018.0
20260902022008 69 89 1.7 0.0 0.00 0.00 0.00 89 1018.0
20260902021958 69 87 1.7 0.0 0.00 0.00 0.00 89 1018.0
20260902021855 69 87 1.7 0.0 0.00 0.00 0.00 88 1018.0
20260902021820 69 84 1.7 0.0 0.00 0.00 0.00 88 1018.0
20260902021810 69 48 1.7 0.0 0.00 0.00 0.00 88 1018.0
20260902021747 69 114 0.9 0.0 0.00 0.00 0.00 88 1018.0
20260902021657 69 114 0.9 0.0 0.00 0.00 0.00 88 1018.0
20260902021632 69 114 0.0 0.0 0.00 0.00 0.00 88 1018.0
20260902021558 69 114 0.0 0.0 0.00 0.00 0.00 88 1018.0
20260902021526 69 114 0.0 0.0 0.00 0.00 0.00 88 1018.0
20260902021452 69 114 0.0 0.0 0.00 0.00 0.00 88 1018.0
20260902021420 69 114 0.0 0.0 0.00 0.00 0.00 88 1018.0
20260902021349 69 114 0.0 0.0 0.00 0.00 0.00 88 1018.0
20260902021257 69 114 0.0 0.0 0.00 0.00 0.00 88 1018.0
20260902021218 69 114 0.0 0.0 0.00 0.00 0.00 88 1018.0
20260902021147 70 114 0.0 0.0 0.00 0.00 0.00 88 1018.0
20260902021116 70 114 1.7 0.0 0.00 0.00 0.00 88 1018.0
20260902021037 70 114 1.7 0.0 0.00 0.00 0.00 88 1018.0
20260902021006 70 114 1.7 0.0 0.00 0.00 0.00 88 1018.0
20260902020935 70 114 1.7 0.0 0.00 0.00 0.00 88 1018.0
20260902020924 70 114 1.7 0.0 0.00 0.00 0.00 87 1018.0
20260902020843 70 114 1.7 0.0 0.00 0.00 0.00 87 1018.0
20260902020822 70 114 0.0 0.0 0.00 0.00 0.00 86 1018.0
20260902020747 70 114 0.0 0.0 0.00 0.00 0.00 86 1018.0
20260902020716 70 114 0.0 0.0 0.00 0.00 0.00 86 1018.0
20260902020644 70 120 0.0 0.0 0.00 0.00 0.00 86 1018.0
20260902020613 70 120 0.0 0.0 0.00 0.00 0.00 86 1018.0
20260902020542 70 120 0.0 0.0 0.00 0.00 0.00 86 1018.0
20260902020510 70 120 0.0 0.0 0.00 0.00 0.00 86 1018.0
20260902020439 70 120 0.0 0.0 0.00 0.00 0.00 86 1018.0
20260902020425 70 118 0.0 0.0 0.00 0.00 0.00 86 1018.0
20260902020354 70 118 0.0 0.0 0.00 0.00 0.00 86 1018.0
20260902020343 70 118 1.7 0.0 0.00 0.00 0.00 85 1018.0
20260902020312 70 118 1.7 0.0 0.00 0.00 0.00 85 1018.0
20260902020247 70 118 0.9 0.0 0.00 0.00 0.00 85 1018.0
20260902020216 70 118 0.9 0.9 0.00 0.00 0.00 85 1018.0
20260902020155 70 120 1.7 0.0 0.00 0.00 0.00 85 1018.0
20260902020124 70 104 0.9 0.0 0.00 0.00 0.00 86 1018.0
20260902020053 70 104 0.9 0.0 0.00 0.00 0.00 86 1018.0
20260902020021 70 104 0.9 0.0 0.00 0.00 0.00 86 1018.0
20260902020008 70 104 1.7 0.0 0.00 0.00 0.00 86 1018.0
20260902015929 70 102 0.0 0.0 0.00 0.00 0.00 86 1018.0
20260902015901 70 102 0.9 0.0 0.00 0.00 0.00 87 1018.0
20260902015851 70 102 0.9 0.9 0.00 0.00 0.00 87 1018.0
20260902015830 70 91 0.0 0.0 0.00 0.00 0.00 87 1018.0
20260902015752 70 91 0.0 0.0 0.00 0.00 0.00 87 1018.0
20260902015703 70 91 1.7 0.0 0.00 0.00 0.00 87 1018.0
20260902015653 70 91 1.7 1.7 0.00 0.00 0.00 87 1018.0
20260902015614 70 91 1.7 0.0 0.00 0.00 0.00 87 1018.0
20260902015604 70 91 1.7 1.7 0.00 0.00 0.00 87 1018.0
20260902015533 70 91 0.0 0.0 0.00 0.00 0.00 87 1018.0
20260902015512 70 91 0.0 0.0 0.00 0.00 0.00 88 1018.0
20260902015440 70 91 0.0 0.0 0.00 0.00 0.00 88 1018.0
20260902015409 70 91 0.0 0.0 0.00 0.00 0.00 88 1018.0
20260902015338 70 91 0.9 0.0 0.00 0.00 0.00 88 1018.0
20260902015327 70 91 0.9 0.9 0.00 0.00 0.00 88 1018.0
20260902015256 70 91 0.9 0.0 0.00 0.00 0.00 88 1018.0
20260902015247 70 92 0.0 0.0 0.00 0.00 0.00 88 1018.0
20260902015157 70 92 0.0 0.0 0.00 0.00 0.00 88 1018.0
20260902015122 70 92 0.0 0.0 0.00 0.00 0.00 88 1018.0
20260902015051 70 92 0.0 0.0 0.00 0.00 0.00 88 1018.0
20260902015019 70 92 0.0 0.0 0.00 0.00 0.00 88 1018.0
20260902014945 70 92 0.0 0.0 0.00 0.00 0.00 88 1018.0
20260902014910 70 92 0.0 0.0 0.00 0.00 0.00 88 1018.0
20260902014839 70 92 0.0 0.0 0.00 0.00 0.00 88 1018.0
20260902014814 70 92 0.0 0.0 0.00 0.00 0.00 89 1018.0
20260902014715 70 92 0.0 0.0 0.00 0.00 0.00 89 1018.0
20260902014644 70 92 0.0 0.0 0.00 0.00 0.00 89 1018.0
20260902014623 70 92 0.0 0.0 0.00 0.00 0.00 88 1018.0
20260902014548 70 92 0.0 0.0 0.00 0.00 0.00 88 1018.0
20260902014517 70 92 0.0 0.0 0.00 0.00 0.00 88 1018.0
20260902014445 70 92 0.0 0.0 0.00 0.00 0.00 88 1018.0
20260902014435 70 92 0.0 0.0 0.00 0.00 0.00 87 1018.0
20260902014404 70 92 0.0 0.0 0.00 0.00 0.00 87 1018.0
20260902014353 70 92 1.7 0.0 0.00 0.00 0.00 87 1018.0
20260902014322 70 92 1.7 0.0 0.00 0.00 0.00 87 1018.0
20260902014251 70 92 0.0 0.0 0.00 0.00 0.00 87 1018.0
20260902014212 71 91 1.7 0.0 0.00 0.00 0.00 85 1018.0
20260902014151 71 84 0.0 0.0 0.00 0.00 0.00 85 1018.0
20260902014117 71 84 0.0 0.0 0.00 0.00 0.00 85 1018.0
20260902014045 71 84 1.7 0.0 0.00 0.00 0.00 85 1018.0
20260902014014 71 84 1.7 0.0 0.00 0.00 0.00 84 1018.0
20260902014000 71 84 0.0 0.0 0.00 0.00 0.00 84 1018.0
20260902013922 71 84 0.0 0.0 0.00 0.00 0.00 84 1018.0
20260902013843 71 84 0.0 0.0 0.00 0.00 0.00 84 1018.0
20260902013833 71 84 0.9 0.0 0.00 0.00 0.00 84 1018.0
20260902013809 71 85 0.9 0.0 0.00 0.00 0.00 84 1018.0
20260902013737 71 96 0.0 0.0 0.00 0.00 0.00 84 1018.0
20260902013656 71 96 0.0 0.0 0.00 0.00 0.00 84 1018.0
20260902013624 71 96 0.0 0.0 0.00 0.00 0.00 84 1018.0
20260902013553 71 96 0.0 0.0 0.00 0.00 0.00 84 1018.0
20260902013522 71 96 0.0 0.0 0.00 0.00 0.00 84 1018.0
20260902013443 71 96 0.9 0.0 0.00 0.00 0.00 84 1018.0
20260902013422 71 96 1.7 0.0 0.00 0.00 0.00 84 1018.0
20260902013401 71 96 0.0 0.0 0.00 0.00 0.00 84 1018.0
20260902013330 71 96 0.0 0.0 0.00 0.00 0.00 84 1018.0
20260902013259 71 96 1.7 0.0 0.00 0.00 0.00 84 1018.0
20260902013237 71 96 0.0 0.0 0.00 0.00 0.00 84 1018.0
20260902013203 71 103 0.9 0.0 0.00 0.00 0.00 84 1018.0
20260902013132 71 103 0.9 0.0 0.00 0.00 0.00 84 1018.0
20260902013101 71 105 1.7 0.0 0.00 0.00 0.00 84 1018.0
20260902013050 71 105 1.7 1.7 0.00 0.00 0.00 84 1018.0
20260902013019 71 105 0.0 0.0 0.00 0.00 0.00 84 1018.0
20260902013008 71 84 1.7 0.0 0.00 0.00 0.00 84 1018.0
20260902012930 71 84 1.7 0.0 0.00 0.00 0.00 84 1018.0
20260902012902 71 342 0.0 0.0 0.00 0.00 0.00 84 1018.0
20260902012827 71 342 0.0 0.0 0.00 0.00 0.00 84 1018.0
20260902012814 71 306 1.7 0.0 0.00 0.00 0.00 84 1018.0
20260902012737 71 306 1.7 0.0 0.00 0.00 0.00 84 1018.0
20260902012647 71 306 1.7 0.0 0.00 0.00 0.00 84 1018.0
20260902012615 71 311 0.0 0.0 0.00 0.00 0.00 84 1018.0
20260902012540 71 294 2.6 0.0 0.00 0.00 0.00 84 1018.0
20260902012506 71 299 1.7 0.0 0.00 0.00 0.00 84 1018.0
20260902012434 71 299 1.7 0.0 0.00 0.00 0.00 84 1018.0
20260902012410 71 306 1.7 0.0 0.00 0.00 0.00 84 1018.0
20260902012339 71 306 1.7 0.0 0.00 0.00 0.00 84 1018.0
20260902012328 71 306 1.7 1.7 0.00 0.00 0.00 84 1018.0
20260902012318 71 306 0.0 0.0 0.00 0.00 0.00 84 1018.0
20260902012237 71 306 0.0 0.0 0.00 0.00 0.00 84 1018.0
20260902012147 71 300 1.7 0.0 0.00 0.00 0.00 84 1018.0
20260902012116 71 300 1.7 0.0 0.00 0.00 0.00 84 1018.0
20260902012045 71 300 1.7 0.0 0.00 0.00 0.00 84 1018.0
20260902012013 71 300 1.7 0.0 0.00 0.00 0.00 84 1018.0
20260902012003 71 300 1.7 1.7 0.00 0.00 0.00 84 1018.0
20260902011931 71 300 1.7 0.0 0.00 0.00 0.00 84 1018.0
20260902011846 71 294 0.0 0.0 0.00 0.00 0.00 84 1018.0
20260902011825 71 318 1.7 0.0 0.00 0.00 0.00 84 1018.0
20260902011754 71 318 1.7 0.0 0.00 0.00 0.00 84 1018.0
20260902011734 71 294 0.0 0.0 0.00 0.00 0.00 85 1018.0
20260902011644 71 294 0.0 0.0 0.00 0.00 0.00 85 1018.0
20260902011634 71 294 1.7 0.0 0.00 0.00 0.00 85 1018.0
20260902011600 71 294 1.7 0.0 0.00 0.00 0.00 85 1018.0
20260902011549 71 290 0.0 0.0 0.00 0.00 0.00 85 1018.0
20260902011517 71 290 0.0 0.0 0.00 0.00 0.00 85 1018.0
20260902011446 71 294 1.7 0.0 0.00 0.00 0.00 85 1018.0
20260902011436 71 294 0.0 0.0 0.00 0.00 0.00 85 1018.0
20260902011404 71 294 0.0 0.0 0.00 0.00 0.00 85 1018.0
20260902011326 71 294 0.0 0.0 0.00 0.00 0.00 85 1018.0
20260902011305 70 294 0.9 0.0 0.00 0.00 0.00 85 1018.0
20260902011232 70 294 0.9 0.0 0.00 0.00 0.00 85 1018.0
20260902011203 70 294 0.9 0.9 0.00 0.00 0.00 85 1018.0
20260902011152 70 294 1.7 0.0 0.00 0.00 0.00 85 1018.0
20260902011114 70 294 1.7 0.0 0.00 0.00 0.00 85 1018.0
20260902011043 70 294 1.7 0.0 0.00 0.00 0.00 85 1018.0
20260902011032 70 294 0.9 0.0 0.00 0.00 0.00 85 1018.0
20260902011001 70 294 0.9 0.0 0.00 0.00 0.00 85 1018.0
20260902010950 70 294 0.9 0.9 0.00 0.00 0.00 85 1018.0
20260902010940 70 294 1.7 0.0 0.00 0.00 0.00 85 1018.0
20260902010855 70 284 4.3 0.0 0.00 0.00 0.00 85 1018.0
20260902010841 70 284 4.3 4.3 0.00 0.00 0.00 85 1018.0
20260902010810 69 298 1.7 0.0 0.00 0.00 0.00 86 1018.0
20260902010755 69 282 4.3 0.0 0.00 0.00 0.00 86 1018.0
20260902010732 69 294 1.7 0.0 0.00 0.00 0.00 86 1018.0
20260902010642 69 294 1.7 0.0 0.00 0.00 0.00 86 1018.0
20260902010611 69 294 5.2 0.0 0.00 0.00 0.00 88 1018.0
20260902010540 69 324 0.9 0.0 0.00 0.00 0.00 88 1018.0
20260902010529 69 324 0.9 0.9 0.00 0.00 0.00 88 1018.0
20260902010508 69 54 1.7 0.0 0.00 0.00 0.00 91 1018.0
20260902010437 69 54 1.7 0.0 0.00 0.00 0.00 91 1018.0
20260902010406 69 54 1.7 0.0 0.00 0.00 0.00 91 1018.0
20260902010335 69 54 0.0 0.0 0.00 0.00 0.00 91 1018.0
20260902010303 69 54 0.0 0.0 0.00 0.00 0.00 90 1018.0
20260902010230 69 54 0.0 0.0 0.00 0.00 0.00 90 1018.0
20260902010140 69 54 0.0 0.0 0.00 0.00 0.00 90 1018.0
20260902010108 69 54 0.0 0.0 0.00 0.00 0.00 90 1018.0
20260902010047 70 54 0.9 0.0 0.00 0.00 0.00 90 1018.0
20260902010027 70 54 0.0 0.0 0.00 0.00 0.00 90 1018.0
20260902005955 70 54 0.0 0.0 0.00 0.00 0.00 90 1018.0
20260902005927 70 54 1.7 0.0 0.00 0.00 0.00 89 1018.0
20260902005917 70 54 1.7 1.7 0.00 0.00 0.00 89 1018.0
20260902005839 70 6 0.0 0.0 0.00 0.00 0.00 89 1018.0
20260902005808 70 6 0.0 0.0 0.00 0.00 0.00 89 1018.0
20260902005730 70 6 0.0 0.0 0.00 0.00 0.00 88 1018.0
20260902005640 70 6 0.0 0.0 0.00 0.00 0.00 88 1018.0
20260902005630 70 6 1.7 0.0 0.00 0.00 0.00 88 1018.0
20260902005559 70 6 1.7 0.0 0.00 0.00 0.00 88 1018.0
20260902005538 70 6 0.0 0.0 0.00 0.00 0.00 88 1018.0
20260902005506 70 6 0.0 0.0 0.00 0.00 0.00 88 1018.0
20260902005435 70 6 0.0 0.0 0.00 0.00 0.00 88 1018.0
20260902005353 70 6 0.0 0.0 0.00 0.00 0.00 88 1018.0
20260902005322 70 6 0.9 0.0 0.00 0.00 0.00 87 1018.0
20260902005251 70 318 1.7 0.0 0.00 0.00 0.00 87 1018.0
20260902005240 70 318 1.7 1.7 0.00 0.00 0.00 87 1018.0
20260902005228 70 72 1.7 0.0 0.00 0.00 0.00 89 1018.0
20260902005138 70 72 1.7 0.0 0.00 0.00 0.00 89 1018.0
20260902005106 70 72 1.7 0.0 0.00 0.00 0.00 89 1018.0
20260902005035 70 72 1.7 0.0 0.00 0.00 0.00 88 1018.0
20260902005004 70 72 0.9 0.0 0.00 0.00 0.00 88 1018.0
20260902004953 70 72 0.9 0.9 0.00 0.00 0.00 88 1018.0
20260902004915 70 72 1.7 0.0 0.00 0.00 0.00 88 1018.0
20260902004833 70 66 1.7 0.0 0.00 0.00 0.00 88 1018.0
20260902004802 70 66 0.0 0.0 0.00 0.00 0.00 88 1018.0
20260902004728 70 328 1.7 0.0 0.00 0.00 0.00 86 1018.0
20260902004649 70 328 1.7 0.0 0.00 0.00 0.00 86 1018.0
20260902004638 70 328 1.7 1.7 0.00 0.00 0.00 86 1018.0
20260902004610 70 328 0.0 0.0 0.00 0.00 0.00 84 1018.0
20260902004536 70 328 1.7 0.0 0.00 0.00 0.00 84 1018.0
20260902004525 70 328 3.5 0.0 0.00 0.00 0.00 87 1018.0
20260902004454 70 328 3.5 0.0 0.00 0.00 0.00 87 1018.0
20260902004433 70 342 0.9 0.0 0.00 0.00 0.00 87 1018.0
20260902004358 70 342 1.7 0.0 0.00 0.00 0.00 87 1018.0
20260902004337 70 96 0.0 0.0 0.00 0.00 0.00 90 1018.0
20260902004306 70 96 0.0 0.0 0.00 0.00 0.00 90 1018.0
20260902004235 70 98 0.9 0.0 0.00 0.00 0.00 90 1018.0
20260902004153 70 98 0.0 0.0 0.00 0.00 0.00 90 1018.0
20260902004122 70 98 0.0 0.0 0.00 0.00 0.00 90 1018.0
20260902004050 70 98 0.0 0.0 0.00 0.00 0.00 90 1018.0
20260902004019 70 98 0.0 0.0 0.00 0.00 0.00 90 1018.0
20260902003948 70 98 0.9 0.0 0.00 0.00 0.00 90 1018.0
20260902003916 70 98 0.0 0.0 0.00 0.00 0.00 90 1018.0
20260902003831 70 98 0.0 0.0 0.00 0.00 0.00 89 1018.0
20260902003756 70 98 1.7 0.0 0.00 0.00 0.00 89 1018.0
20260902003723 70 98 0.0 0.0 0.00 0.00 0.00 89 1018.0
20260902003654 70 98 1.7 0.0 0.00 0.00 0.00 89 1018.0
20260902003622 70 98 1.7 0.0 0.00 0.00 0.00 89 1018.0
20260902003551 70 98 0.9 0.0 0.00 0.00 0.00 88 1018.0
20260902003541 70 98 0.9 0.9 0.00 0.00 0.00 88 1018.0
20260902003530 70 98 0.0 0.0 0.00 0.00 0.00 88 1018.0
20260902003459 70 98 0.0 0.0 0.00 0.00 0.00 88 1018.0
20260902003428 70 98 0.0 0.0 0.00 0.00 0.00 88 1018.0
20260902003356 70 98 0.9 0.0 0.00 0.00 0.00 88 1018.0
20260902003335 71 98 0.0 0.0 0.00 0.00 0.00 87 1018.0
20260902003304 71 98 0.0 0.0 0.00 0.00 0.00 87 1018.0
20260902003233 71 98 0.0 0.0 0.00 0.00 0.00 87 1018.0
20260902003151 71 98 1.7 0.0 0.00 0.00 0.00 87 1018.0
20260902003120 71 98 1.7 0.0 0.00 0.00 0.00 87 1018.0
20260902003101 71 98 0.0 0.0 0.00 0.00 0.00 87 1018.0
20260902003027 71 98 0.0 0.0 0.00 0.00 0.00 87 1018.0
20260902003007 71 98 0.9 0.0 0.00 0.00 0.00 87 1018.0
20260902002946 71 98 0.0 0.0 0.00 0.00 0.00 87 1018.0
20260902002914 71 98 0.0 0.0 0.00 0.00 0.00 87 1018.0
20260902002843 71 98 0.0 0.0 0.00 0.00 0.00 87 1018.0
20260902002812 71 98 0.0 0.0 0.00 0.00 0.00 86 1018.0
20260902002737 71 98 1.7 0.0 0.00 0.00 0.00 86 1018.0
20260902002714 71 98 0.0 0.0 0.00 0.00 0.00 86 1018.0
20260902002620 71 98 0.0 0.0 0.00 0.00 0.00 86 1018.0
20260902002535 71 98 0.0 0.0 0.00 0.00 0.00 86 1018.0
20260902002504 71 98 0.0 0.0 0.00 0.00 0.00 86 1018.0
20260902002453 71 98 1.7 0.0 0.00 0.00 0.00 86 1018.0
20260902002422 71 98 1.7 0.0 0.00 0.00 0.00 86 1018.0
20260902002401 71 98 0.0 0.0 0.00 0.00 0.00 86 1018.0
20260902002330 71 98 0.0 0.0 0.00 0.00 0.00 86 1018.0
20260902002309 71 98 1.7 0.0 0.00 0.00 0.00 86 1018.0
20260902002255 72 327 1.7 0.0 0.00 0.00 0.00 85 1018.0
20260902002224 72 327 1.7 0.0 0.00 0.00 0.00 85 1018.0
20260902002145 72 324 0.0 0.0 0.00 0.00 0.00 84 1018.0
20260902002114 72 324 0.9 0.0 0.00 0.00 0.00 84 1018.0
20260902002104 72 324 0.9 0.9 0.00 0.00 0.00 84 1018.0
20260902002043 72 330 0.0 0.0 0.00 0.00 0.00 85 1018.0
20260902002011 72 330 0.0 0.0 0.00 0.00 0.00 85 1018.0
20260902001940 72 330 0.0 0.0 0.00 0.00 0.00 85 1018.0
20260902001902 72 330 0.0 0.0 0.00 0.00 0.00 85 1018.0
20260902001834 71 330 0.0 0.0 0.00 0.00 0.00 84 1018.0
20260902001803 71 330 0.0 0.0 0.00 0.00 0.00 84 1018.0
20260902001731 71 330 0.0 0.0 0.00 0.00 0.00 84 1018.0
20260902001709 71 330 1.7 0.0 0.00 0.00 0.00 84 1018.0
20260902001625 71 330 1.7 0.0 0.00 0.00 0.00 84 1018.0
20260902001615 71 330 1.7 1.7 0.00 0.00 0.00 84 1018.0
20260902001533 71 306 1.7 0.0 0.00 0.00 0.00 85 1018.0
20260902001502 71 198 0.0 0.0 0.00 0.00 0.00 85 1018.0
20260902001430 71 198 0.0 0.0 0.00 0.00 0.00 85 1018.0
20260902001359 71 198 0.0 0.0 0.00 0.00 0.00 85 1018.0
20260902001328 71 198 0.0 0.0 0.00 0.00 0.00 85 1018.0
20260902001256 71 198 0.9 0.0 0.00 0.00 0.00 85 1018.0
20260902001218 71 198 0.9 0.0 0.00 0.00 0.00 85 1018.0
20260902001209 71 198 0.9 0.9 0.00 0.00 0.00 85 1018.0
20260902001119 71 198 1.7 0.0 0.00 0.00 0.00 87 1018.0
20260902001037 71 198 1.7 0.0 0.00 0.00 0.00 87 1018.0
20260902001027 71 198 1.7 1.7 0.00 0.00 0.00 87 1018.0
20260902001016 71 174 0.0 0.0 0.00 0.00 0.00 87 1018.0
20260902000945 71 174 0.0 0.0 0.00 0.00 0.00 87 1018.0
20260902000914 71 174 0.0 0.0 0.00 0.00 0.00 87 1018.0
20260902000842 71 174 0.0 0.0 0.00 0.00 0.00 87 1018.0
20260902000754 71 174 0.0 0.0 0.00 0.00 0.00 87 1018.0
20260902000743 71 174 0.0 0.0 0.00 0.00 0.00 89 1018.0
20260902000703 71 174 0.0 0.0 0.00 0.00 0.00 89 1018.0
20260902000613 71 174 0.0 0.0 0.00 0.00 0.00 89 1018.0
20260902000541 71 174 0.0 0.0 0.00 0.00 0.00 89 1018.0
20260902000510 71 174 0.0 0.0 0.00 0.00 0.00 89 1018.0
20260902000439 71 174 0.0 0.0 0.00 0.00 0.00 89 1018.0
20260902000408 71 174 0.0 0.0 0.00 0.00 0.00 89 1018.0
20260902000337 71 174 0.0 0.0 0.00 0.00 0.00 89 1018.0
20260902000326 71 174 0.9 0.0 0.00 0.00 0.00 89 1018.0
20260902000257 71 174 0.9 0.0 0.00 0.00 0.00 89 1018.0
20260902000223 71 174 0.0 0.0 0.00 0.00 0.00 89 1018.0
20260902000204 71 174 0.0 0.0 0.00 0.00 0.00 88 1018.0
20260902000113 71 174 0.0 0.0 0.00 0.00 0.00 88 1018.0
20260902000035 71 174 0.0 0.0 0.00 0.00 0.00 88 1018.0
20260902000025 71 174 1.7 0.0 0.00 0.00 0.00 88 1018.0
20260901235953 71 174 1.7 0.0 0.00 0.00 0.00 88 1018.0
20260901235919 71 174 1.7 0.0 0.00 0.00 0.00 88 1018.0
20260901235905 71 174 1.7 1.7 0.00 0.00 0.00 88 1018.0
20260901235830 71 174 1.7 0.0 0.00 0.00 0.00 88 1018.0
20260901235759 71 174 0.0 0.0 0.00 0.00 0.00 88 1018.0
20260901235738 71 174 0.9 0.0 0.00 0.00 0.00 87 1018.0
20260901235701 71 174 0.0 0.0 0.00 0.00 0.00 87 1018.0
20260901235621 71 174 0.0 0.0 0.00 0.00 0.00 87 1018.0
20260901235536 71 174 0.0 0.0 0.00 0.00 0.00 87 1018.0
20260901235505 71 174 0.0 0.0 0.00 0.00 0.00 87 1018.0
20260901235433 72 174 0.0 0.0 0.00 0.00 0.00 85 1018.0
20260901235402 72 174 1.7 0.0 0.00 0.00 0.00 85 1018.0
20260901235331 72 174 1.7 0.0 0.00 0.00 0.00 85 1018.0
20260901235259 72 174 1.7 0.0 0.00 0.00 0.00 85 1018.0
20260901235249 72 282 0.0 0.0 0.00 0.00 0.00 85 1018.0
20260901235218 72 282 0.0 0.0 0.00 0.00 0.00 85 1018.0
20260901235158 72 283 0.0 0.0 0.00 0.00 0.00 85 1018.0
20260901235118 72 288 0.0 0.0 0.00 0.00 0.00 85 1018.0
20260901235030 72 288 0.0 0.0 0.00 0.00 0.00 85 1018.0
20260901235019 72 288 1.7 0.0 0.00 0.00 0.00 85 1018.0
20260901234948 72 288 1.7 0.0 0.00 0.00 0.00 85 1018.0
20260901234913 72 288 1.7 0.0 0.00 0.00 0.00 85 1018.0
20260901234849 72 310 0.0 0.0 0.00 0.00 0.00 85 1018.0
20260901234804 72 310 1.7 0.0 0.00 0.00 0.00 85 1018.0
20260901234753 72 310 1.7 1.7 0.00 0.00 0.00 85 1018.0
20260901234718 72 305 1.7 0.0 0.00 0.00 0.00 85 1018.0
20260901234627 72 310 1.7 0.0 0.00 0.00 0.00 85 1018.0
20260901234555 72 310 1.7 0.0 0.00 0.00 0.00 85 1018.0
20260901234544 72 300 1.7 0.0 0.00 0.00 0.00 85 1018.0
20260901234513 72 300 1.7 0.0 0.00 0.00 0.00 85 1018.0
20260901234503 72 300 1.7 1.7 0.00 0.00 0.00 85 1018.0
20260901234431 72 306 1.7 0.0 0.00 0.00 0.00 86 1018.0
20260901234400 72 306 1.7 0.0 0.00 0.00 0.00 86 1018.0
20260901234339 72 306 0.9 0.0 0.00 0.00 0.00 85 1018.0
20260901234308 72 306 0.9 0.0 0.00 0.00 0.00 85 1018.0
20260901234247 72 306 1.7 0.0 0.00 0.00 0.00 85 1018.0
20260901234236 72 310 1.7 0.0 0.00 0.00 0.00 85 1018.0
20260901234205 72 310 1.7 0.0 0.00 0.00 0.00 85 1018.0
20260901234116 72 310 1.7 0.0 0.00 0.00 0.00 85 1018.0
20260901234102 72 310 1.7 1.7 0.00 0.00 0.00 85 1018.0
20260901234052 72 150 1.7 0.0 0.00 0.00 0.00 85 1018.0
20260901234021 72 150 1.7 0.0 0.00 0.00 0.00 85 1018.0
20260901233949 72 150 1.7 0.0 0.00 0.00 0.00 85 1018.0
20260901233932 72 289 1.7 0.0 0.00 0.00 0.00 85 1018.0
20260901233857 72 289 1.7 0.0 0.00 0.00 0.00 85 1018.0
20260901233823 72 289 0.0 0.0 0.00 0.00 0.00 85 1018.0
20260901233751 72 290 0.9 0.0 0.00 0.00 0.00 84 1018.0
20260901233741 72 290 0.9 0.9 0.00 0.00 0.00 84 1018.0
20260901233709 72 289 1.7 0.0 0.00 0.00 0.00 84 1018.0
20260901233624 72 290 1.7 0.0 0.00 0.00 0.00 84 1018.0
20260901233614 72 288 3.5 0.0 0.00 0.00 0.00 84 1018.0
20260901233542 72 288 3.5 0.0 0.00 0.00 0.00 84 1018.0
20260901233511 72 300 0.9 0.0 0.00 0.00 0.00 84 1018.0
20260901233450 72 300 0.9 0.9 0.00 0.00 0.00 84 1018.0
20260901233440 72 299 1.7 0.0 0.00 0.00 0.00 84 1018.0
20260901233408 72 299 1.7 0.0 0.00 0.00 0.00 84 1018.0
20260901233337 72 299 1.7 0.0 0.00 0.00 0.00 84 1018.0
20260901233306 72 299 1.7 0.0 0.00 0.00 0.00 84 1018.0
20260901233245 72 288 1.7 0.0 0.00 0.00 0.00 84 1018.0
20260901233214 72 288 1.7 0.0 0.00 0.00 0.00 84 1018.0
20260901233154 72 277 1.7 0.0 0.00 0.00 0.00 85 1018.0
20260901233114 72 277 1.7 0.0 0.00 0.00 0.00 85 1018.0
20260901233053 72 277 0.0 0.0 0.00 0.00 0.00 85 1018.0
20260901233022 72 277 0.0 0.0 0.00 0.00 0.00 85 1018.0
20260901232951 72 277 0.0 0.0 0.00 0.00 0.00 85 1018.0
20260901232940 72 277 1.7 0.0 0.00 0.00 0.00 85 1018.0
20260901232906 72 277 1.7 0.0 0.00 0.00 0.00 85 1018.0
20260901232831 71 278 0.9 0.0 0.00 0.00 0.00 86 1018.0
20260901232756 71 278 0.9 0.0 0.00 0.00 0.00 86 1018.0
20260901232725 71 278 1.7 0.0 0.00 0.00 0.00 86 1018.0
20260901232704 71 278 1.7 1.7 0.00 0.00 0.00 86 1018.0
20260901232651 71 150 0.0 0.0 0.00 0.00 0.00 86 1018.0
20260901232558 71 150 0.0 0.0 0.00 0.00 0.00 86 1018.0
20260901232537 71 150 1.7 0.0 0.00 0.00 0.00 87 1018.0
20260901232505 71 150 1.7 0.0 0.00 0.00 0.00 87 1018.0
20260901232434 71 276 1.7 0.0 0.00 0.00 0.00 87 1018.0
20260901232424 71 276 0.0 0.0 0.00 0.00 0.00 87 1018.0
20260901232352 71 276 0.0 0.0 0.00 0.00 0.00 87 1018.0
20260901232342 71 270 2.6 0.0 0.00 0.00 0.00 88 1018.0
20260901232311 71 270 2.6 0.0 0.00 0.00 0.00 88 1018.0
20260901232250 71 354 0.0 0.0 0.00 0.00 0.00 89 1018.0
20260901232218 71 354 0.0 0.0 0.00 0.00 0.00 89 1018.0
20260901232157 71 354 0.0 0.0 0.00 0.00 0.00 90 1018.0
20260901232145 71 354 1.7 0.0 0.00 0.00 0.00 89 1018.0
20260901232112 71 354 1.7 0.0 0.00 0.00 0.00 89 1018.0
20260901232102 71 354 1.7 1.7 0.00 0.00 0.00 89 1018.0
20260901232030 71 354 1.7 0.0 0.00 0.00 0.00 88 1018.0
20260901232020 71 354 0.0 0.0 0.00 0.00 0.00 88 1018.0
20260901231949 71 354 0.0 0.0 0.00 0.00 0.00 88 1018.0
20260901231917 71 354 0.0 0.0 0.00 0.00 0.00 88 1018.0
20260901231843 71 354 0.0 0.0 0.00 0.00 0.00 88 1018.0
20260901231740 71 354 0.0 0.0 0.00 0.00 0.00 88 1018.0
20260901231705 71 354 0.0 0.0 0.00 0.00 0.00 88 1018.0
20260901231616 71 354 0.0 0.0 0.00 0.00 0.00 88 1018.0
20260901231535 71 354 0.0 0.0 0.00 0.00 0.00 89 1018.0
20260901231503 71 354 0.0 0.0 0.00 0.00 0.00 89 1018.0
20260901231453 71 354 0.9 0.0 0.00 0.00 0.00 89 1018.0
20260901231422 71 354 0.9 0.0 0.00 0.00 0.00 89 1018.0
20260901231350 71 354 0.0 0.0 0.00 0.00 0.00 89 1018.0
20260901231319 71 354 0.0 0.0 0.00 0.00 0.00 89 1018.0
20260901231248 71 354 0.0 0.0 0.00 0.00 0.00 89 1018.0
20260901231216 71 354 0.0 0.0 0.00 0.00 0.00 89 1018.0
20260901231140 71 354 0.0 0.0 0.00 0.00 0.00 89 1018.0
20260901231046 71 354 0.0 0.0 0.00 0.00 0.00 89 1018.0
20260901231014 71 354 0.0 0.0 0.00 0.00 0.00 89 1018.0
20260901230943 71 354 0.9 0.0 0.00 0.00 0.00 90 1018.0
20260901230933 71 354 0.0 0.0 0.00 0.00 0.00 90 1018.0
20260901230858 71 354 0.0 0.0 0.00 0.00 0.00 90 1018.0
20260901230820 71 354 0.0 0.0 0.00 0.00 0.00 90 1018.0
20260901230748 71 354 0.0 0.0 0.00 0.00 0.00 90 1018.0
20260901230717 71 354 0.0 0.0 0.00 0.00 0.00 90 1018.0
20260901230640 71 354 0.0 0.0 0.00 0.00 0.00 90 1018.0
20260901230611 71 354 0.9 0.0 0.00 0.00 0.00 90 1018.0
20260901230540 71 354 0.9 0.0 0.00 0.00 0.00 90 1018.0
20260901230529 71 354 0.9 0.9 0.00 0.00 0.00 90 1018.0
20260901230458 71 354 0.9 0.0 0.00 0.00 0.00 89 1018.0
20260901230448 71 354 0.0 0.0 0.00 0.00 0.00 89 1018.0
20260901230416 71 354 0.0 0.0 0.00 0.00 0.00 89 1018.0
20260901230320 71 354 0.0 0.0 0.00 0.00 0.00 89 1018.0
20260901230249 71 354 0.0 0.0 0.00 0.00 0.00 89 1018.0
20260901230208 71 354 0.0 0.0 0.00 0.00 0.00 89 1018.0
20260901230137 71 354 0.0 0.0 0.00 0.00 0.00 89 1018.0
20260901230047 71 354 0.0 0.0 0.00 0.00 0.00 89 1018.0
20260901230009 71 354 0.0 0.0 0.00 0.00 0.00 89 1018.0
20260901225938 71 354 0.0 0.0 0.00 0.00 0.00 89 1018.0
20260901225906 71 354 0.0 0.0 0.00 0.00 0.00 89 1018.0
20260901225828 71 354 0.0 0.0 0.00 0.00 0.00 89 1018.0
20260901225736 71 354 0.0 0.0 0.00 0.00 0.00 89 1018.0
20260901225715 72 354 0.0 0.0 0.00 0.00 0.00 89 1018.0
20260901225637 72 354 0.0 0.0 0.00 0.00 0.00 89 1018.0
20260901225541 71 354 0.0 0.0 0.00 0.00 0.00 88 1018.0
20260901225510 71 354 0.0 0.0 0.00 0.00 0.00 88 1018.0
20260901225438 71 354 0.0 0.0 0.00 0.00 0.00 88 1018.0
20260901225407 71 354 1.7 0.0 0.00 0.00 0.00 88 1018.0
20260901225357 71 354 0.0 0.0 0.00 0.00 0.00 88 1018.0
20260901225325 71 354 1.7 0.0 0.00 0.00 0.00 88 1018.0
20260901225315 71 354 1.7 1.7 0.00 0.00 0.00 88 1018.0
20260901225254 71 354 0.0 0.0 0.00 0.00 0.00 88 1018.0
20260901225223 71 354 0.0 0.0 0.00 0.00 0.00 88 1018.0
20260901225151 71 354 0.0 0.0 0.00 0.00 0.00 88 1018.0
20260901225141 71 354 0.0 0.0 0.00 0.00 0.00 89 1018.0
20260901225103 71 354 0.0 0.0 0.00 0.00 0.00 89 1018.0
20260901225031 71 354 0.0 0.0 0.00 0.00 0.00 89 1018.0
20260901225021 71 354 1.7 0.0 0.00 0.00 0.00 89 1018.0
20260901224947 71 354 1.7 0.0 0.00 0.00 0.00 89 1018.0
20260901224915 71 330 1.7 0.0 0.00 0.00 0.00 89 1018.0
20260901224904 71 330 1.7 1.7 0.00 0.00 0.00 89 1018.0
20260901224851 71 24 1.7 0.0 0.00 0.00 0.00 90 1018.0
20260901224826 71 24 1.7 1.7 0.00 0.00 0.00 90 1018.0
20260901224802 71 24 0.0 0.0 0.00 0.00 0.00 90 1018.0
20260901224737 71 24 0.9 0.0 0.00 0.00 0.00 90 1018.0
20260901224706 71 24 0.9 0.0 0.00 0.00 0.00 90 1018.0
20260901224553 71 24 0.0 0.0 0.00 0.00 0.00 89 1018.0
20260901224522 71 24 0.0 0.0 0.00 0.00 0.00 89 1018.0
20260901224450 71 24 0.0 0.0 0.00 0.00 0.00 89 1018.0
20260901224419 71 24 0.0 0.0 0.00 0.00 0.00 89 1018.0
20260901224348 71 24 0.0 0.0 0.00 0.00 0.00 89 1018.0
20260901224316 71 24 0.0 0.0 0.00 0.00 0.00 89 1018.0
20260901224245 71 24 0.0 0.0 0.00 0.00 0.00 89 1018.0
20260901224214 71 24 0.0 0.0 0.00 0.00 0.00 89 1018.0
20260901224142 71 24 0.0 0.0 0.00 0.00 0.00 89 1018.0
20260901224057 71 24 0.0 0.0 0.00 0.00 0.00 89 1018.0
20260901224022 71 24 0.0 0.0 0.00 0.00 0.00 89 1018.0
20260901224001 71 24 0.0 0.0 0.00 0.00 0.00 88 1018.0
20260901223930 71 24 0.0 0.0 0.00 0.00 0.00 88 1018.0
20260901223859 71 24 0.0 0.0 0.00 0.00 0.00 88 1018.0
20260901223821 71 24 0.0 0.0 0.00 0.00 0.00 88 1018.0
20260901223742 71 24 0.0 0.0 0.00 0.00 0.00 88 1018.0
20260901223711 71 24 0.0 0.0 0.00 0.00 0.00 88 1018.0
20260901223701 71 24 0.0 0.0 0.00 0.00 0.00 89 1018.0
20260901223601 71 24 0.0 0.0 0.00 0.00 0.00 89 1018.0
20260901223530 71 24 0.0 0.0 0.00 0.00 0.00 89 1018.0
20260901223459 71 24 0.0 0.0 0.00 0.00 0.00 89 1018.0
20260901223424 71 24 0.0 0.0 0.00 0.00 0.00 89 1018.0
20260901223349 71 24 0.0 0.0 0.00 0.00 0.00 89 1018.0
20260901223318 71 24 0.0 0.0 0.00 0.00 0.00 89 1018.0
20260901223246 71 24 0.0 0.0 0.00 0.00 0.00 89 1018.0
20260901223212 71 24 0.0 0.0 0.00 0.00 0.00 89 1018.0
20260901223131 71 24 0.0 0.0 0.00 0.00 0.00 89 1018.0
20260901223051 71 24 0.0 0.0 0.00 0.00 0.00 89 1018.0
20260901223020 71 24 0.0 0.0 0.00 0.00 0.00 89 1018.0
20260901222949 72 24 0.9 0.0 0.00 0.00 0.00 88 1018.0
20260901222938 72 24 0.9 0.9 0.00 0.00 0.00 88 1018.0
20260901222928 72 24 1.7 0.0 0.00 0.00 0.00 88 1018.0
20260901222857 72 24 1.7 0.0 0.00 0.00 0.00 88 1018.0
20260901222829 72 24 0.0 0.0 0.00 0.00 0.00 88 1018.0
20260901222716 72 24 0.0 0.0 0.00 0.00 0.00 88 1018.0
20260901222641 72 24 0.0 0.0 0.00 0.00 0.00 88 1018.0
20260901222531 72 24 0.9 0.0 0.00 0.00 0.00 88 1018.0
20260901222500 72 24 1.7 0.0 0.00 0.00 0.00 86 1018.0
20260901222450 72 342 1.7 0.0 0.00 0.00 0.00 86 1018.0
20260901222418 72 342 1.7 0.0 0.00 0.00 0.00 86 1018.0
20260901222347 71 342 0.0 0.0 0.00 0.00 0.00 89 1018.0
20260901222316 71 342 1.7 0.0 0.00 0.00 0.00 89 1018.0
20260901222244 71 342 1.7 0.0 0.00 0.00 0.00 89 1018.0
20260901222213 71 342 1.7 0.0 0.00 0.00 0.00 89 1018.0
20260901222203 71 342 1.7 1.7 0.00 0.00 0.00 89 1018.0
20260901222142 71 342 0.9 0.0 0.00 0.00 0.00 89 1018.0
20260901222131 71 342 0.0 0.0 0.00 0.00 0.00 89 1018.0
20260901222039 71 342 0.0 0.0 0.00 0.00 0.00 89 1018.0
20260901222008 71 342 0.0 0.0 0.00 0.00 0.00 89 1018.0
20260901221936 71 342 0.0 0.0 0.00 0.00 0.00 89 1018.0
20260901221905 71 342 0.0 0.0 0.00 0.00 0.00 89 1018.0
20260901221855 72 342 0.9 0.0 0.00 0.00 0.00 89 1018.0
20260901221820 72 342 0.9 0.0 0.00 0.00 0.00 89 1018.0
20260901221810 72 342 0.9 0.0 0.00 0.00 0.00 88 1018.0
20260901221703 72 342 0.0 0.0 0.00 0.00 0.00 89 1018.0
20260901221631 72 342 0.0 0.0 0.00 0.00 0.00 88 1018.0
20260901221543 72 342 0.0 0.0 0.00 0.00 0.00 88 1018.0
20260901221512 72 342 0.0 0.0 0.00 0.00 0.00 88 1018.0
20260901221502 72 342 1.7 0.0 0.00 0.00 0.00 88 1018.0
20260901221430 72 342 1.7 0.0 0.00 0.00 0.00 88 1018.0
20260901221420 72 342 0.0 0.0 0.00 0.00 0.00 88 1018.0
20260901221348 72 342 0.0 0.0 0.00 0.00 0.00 88 1018.0
20260901221317 72 342 0.0 0.0 0.00 0.00 0.00 88 1018.0
20260901221246 72 342 0.0 0.0 0.00 0.00 0.00 88 1018.0
20260901221214 72 342 0.0 0.0 0.00 0.00 0.00 89 1018.0
20260901221143 72 342 0.0 0.0 0.00 0.00 0.00 89 1018.0
20260901221047 72 342 0.0 0.0 0.00 0.00 0.00 89 1018.0
20260901221002 72 342 0.0 0.0 0.00 0.00 0.00 89 1018.0
20260901220931 72 342 0.0 0.0 0.00 0.00 0.00 89 1018.0
20260901220910 72 342 0.0 0.0 0.00 0.00 0.00 88 1018.0
20260901220839 72 342 0.0 0.0 0.00 0.00 0.00 88 1018.0
20260901220804 72 342 0.0 0.0 0.00 0.00 0.00 88 1018.0
20260901220719 72 342 0.9 0.0 0.00 0.00 0.00 88 1018.0
20260901220708 72 342 0.0 0.0 0.00 0.00 0.00 88 1018.0
20260901220631 72 342 0.0 0.0 0.00 0.00 0.00 88 1018.0
20260901220552 72 342 0.0 0.0 0.00 0.00 0.00 88 1018.0
20260901220520 72 342 0.0 0.0 0.00 0.00 0.00 88 1018.0
20260901220449 72 342 0.0 0.0 0.00 0.00 0.00 88 1018.0
20260901220418 72 342 0.0 0.0 0.00 0.00 0.00 88 1018.0
20260901220346 72 342 0.0 0.0 0.00 0.00 0.00 88 1018.0
20260901220315 72 342 0.0 0.0 0.00 0.00 0.00 88 1018.0
20260901220244 72 342 0.9 0.0 0.00 0.00 0.00 88 1018.0
20260901220223 72 342 0.0 0.0 0.00 0.00 0.00 88 1018.0
20260901220148 72 342 0.0 0.0 0.00 0.00 0.00 88 1018.0
20260901220049 72 342 0.9 0.0 0.00 0.00 0.00 88 1018.0
20260901220039 72 342 0.9 0.9 0.00 0.00 0.00 88 1018.0
20260901220007 72 342 0.0 0.0 0.00 0.00 0.00 87 1018.0
20260901215936 72 342 0.9 0.0 0.00 0.00 0.00 87 1018.0
20260901215925 72 342 1.7 0.0 0.00 0.00 0.00 87 1018.0
20260901215854 72 342 1.7 0.0 0.00 0.00 0.00 87 1018.0
20260901215833 72 342 0.0 0.0 0.00 0.00 0.00 87 1018.0
20260901215755 72 342 0.0 0.0 0.00 0.00 0.00 88 1018.0
20260901215713 72 342 0.0 0.0 0.00 0.00 0.00 88 1018.0
20260901215642 72 342 0.0 0.0 0.00 0.00 0.00 88 1018.0
20260901215546 72 342 0.0 0.0 0.00 0.00 0.00 87 1018.0
20260901215515 72 342 0.0 0.0 0.00 0.00 0.00 87 1018.0
20260901215440 72 342 0.0 0.0 0.00 0.00 0.00 87 1018.0
20260901215419 73 342 0.0 0.0 0.00 0.00 0.00 88 1018.0
20260901215348 73 342 0.0 0.0 0.00 0.00 0.00 88 1018.0
20260901215316 73 342 0.0 0.0 0.00 0.00 0.00 88 1018.0
20260901215245 73 342 0.9 0.0 0.00 0.00 0.00 88 1018.0
20260901215224 73 342 0.0 0.0 0.00 0.00 0.00 88 1018.0
20260901215153 73 342 0.0 0.0 0.00 0.00 0.00 88 1018.0
20260901215101 73 342 0.0 0.0 0.00 0.00 0.00 88 1018.0
20260901215029 73 342 0.0 0.0 0.00 0.00 0.00 88 1018.0
20260901214958 73 342 0.0 0.0 0.00 0.00 0.00 88 1018.0
20260901214920 73 342 0.0 0.0 0.00 0.00 0.00 87 1018.0
20260901214909 73 342 0.9 0.0 0.00 0.00 0.00 87 1018.0
20260901214838 73 342 0.9 0.0 0.00 0.00 0.00 87 1018.0
20260901214828 73 342 0.9 0.9 0.00 0.00 0.00 87 1018.0
20260901214749 73 342 1.7 0.0 0.00 0.00 0.00 87 1018.0
20260901214722 73 342 0.9 0.0 0.00 0.00 0.00 87 1018.0
20260901214647 73 342 1.7 0.0 0.00 0.00 0.00 87 1018.0
20260901214527 73 342 0.9 0.0 0.00 0.00 0.00 87 1018.0
20260901214516 73 342 0.9 0.9 0.00 0.00 0.00 87 1018.0
20260901214506 73 342 0.0 0.0 0.00 0.00 0.00 87 1018.0
20260901214434 73 342 0.0 0.0 0.00 0.00 0.00 87 1018.0
20260901214403 73 342 0.9 0.0 0.00 0.00 0.00 87 1018.0
20260901214353 73 342 0.9 0.9 0.00 0.00 0.00 87 1018.0
20260901214318 73 342 0.0 0.0 0.00 0.00 0.00 87 1018.0
20260901214257 73 342 1.7 0.0 0.00 0.00 0.00 87 1018.0
20260901214226 73 342 1.7 0.0 0.00 0.00 0.00 87 1018.0
20260901214155 73 342 1.7 0.0 0.00 0.00 0.00 87 1018.0
20260901214144 74 342 0.0 0.0 0.00 0.00 0.00 86 1018.0
20260901214041 74 342 0.0 0.0 0.00 0.00 0.00 86 1018.0
20260901214010 74 342 0.0 0.0 0.00 0.00 0.00 86 1018.0
20260901213939 74 342 0.0 0.0 0.00 0.00 0.00 86 1018.0
20260901213907 74 342 0.0 0.0 0.00 0.00 0.00 86 1018.0
20260901213836 74 342 0.0 0.0 0.00 0.00 0.00 86 1018.0
20260901213758 74 342 1.7 0.0 0.00 0.00 0.00 86 1018.0
20260901213720 74 342 1.7 0.0 0.00 0.00 0.00 86 1018.0
20260901213706 74 334 0.0 0.0 0.00 0.00 0.00 86 1018.0
20260901213634 74 334 0.0 0.0 0.00 0.00 0.00 86 1018.0
20260901213556 74 334 0.0 0.0 0.00 0.00 0.00 86 1018.0
20260901213525 74 334 0.0 0.0 0.00 0.00 0.00 86 1018.0
20260901213453 74 334 0.0 0.0 0.00 0.00 0.00 86 1018.0
20260901213422 74 334 0.9 0.0 0.00 0.00 0.00 86 1018.0
20260901213351 74 334 1.7 0.0 0.00 0.00 0.00 86 1018.0
20260901213340 74 334 1.7 1.7 0.00 0.00 0.00 86 1018.0
20260901213309 74 334 0.9 0.0 0.00 0.00 0.00 86 1018.0
20260901213258 74 334 0.0 0.0 0.00 0.00 0.00 86 1018.0
20260901213227 74 334 0.0 0.0 0.00 0.00 0.00 86 1018.0
20260901213217 74 334 0.9 0.0 0.00 0.00 0.00 86 1018.0
20260901213145 74 334 0.9 0.0 0.00 0.00 0.00 86 1018.0
20260901213039 74 334 0.0 0.0 0.00 0.00 0.00 86 1018.0
20260901213029 74 334 0.9 0.0 0.00 0.00 0.00 85 1018.0
20260901213004 74 334 0.9 0.9 0.00 0.00 0.00 85 1018.0
20260901212933 74 334 0.0 0.0 0.00 0.00 0.00 85 1018.0
20260901212923 74 334 0.9 0.0 0.00 0.00 0.00 86 1018.0
20260901212851 74 334 0.9 0.0 0.00 0.00 0.00 86 1018.0
20260901212841 74 334 0.9 0.9 0.00 0.00 0.00 86 1018.0
20260901212830 74 334 0.0 0.0 0.00 0.00 0.00 86 1018.0
20260901212749 74 334 0.0 0.0 0.00 0.00 0.00 86 1018.0
20260901212714 74 334 0.0 0.0 0.00 0.00 0.00 85 1018.0
20260901212643 74 334 0.0 0.0 0.00 0.00 0.00 85 1018.0
20260901212526 74 334 0.9 0.0 0.00 0.00 0.00 85 1018.0
20260901212516 74 334 0.9 0.9 0.00 0.00 0.00 85 1018.0
20260901212444 74 334 0.0 0.0 0.00 0.00 0.00 85 1018.0
20260901212409 74 334 0.0 0.0 0.00 0.00 0.00 85 1018.0
20260901212335 74 334 0.0 0.0 0.00 0.00 0.00 85 1018.0
20260901212306 73 334 0.9 0.0 0.00 0.00 0.00 86 1018.0
20260901212232 73 334 0.9 0.0 0.00 0.00 0.00 86 1018.0
20260901212201 73 334 0.9 0.0 0.00 0.00 0.00 86 1018.0
20260901212150 73 334 0.9 0.9 0.00 0.00 0.00 86 1018.0
20260901212131 73 334 0.0 0.0 0.00 0.00 0.00 85 1018.0
20260901212041 73 334 0.0 0.0 0.00 0.00 0.00 85 1018.0
20260901212031 73 334 0.9 0.0 0.00 0.00 0.00 85 1018.0
20260901211959 73 334 0.9 0.0 0.00 0.00 0.00 85 1018.0
20260901211928 73 334 1.7 0.0 0.00 0.00 0.00 86 1018.0
20260901211917 73 334 1.7 1.7 0.00 0.00 0.00 86 1018.0
20260901211846 73 334 1.7 0.0 0.00 0.00 0.00 86 1018.0
20260901211835 73 334 0.0 0.0 0.00 0.00 0.00 86 1018.0
20260901211804 73 334 0.0 0.0 0.00 0.00 0.00 86 1018.0
20260901211729 73 334 0.0 0.0 0.00 0.00 0.00 87 1018.0
20260901211644 73 334 0.9 0.0 0.00 0.00 0.00 87 1018.0
20260901211545 73 334 0.0 0.0 0.00 0.00 0.00 89 1018.0
20260901211514 73 334 0.0 0.0 0.00 0.00 0.00 89 1018.0
20260901211442 73 334 0.0 0.0 0.00 0.00 0.00 89 1018.0
20260901211421 73 334 1.7 0.0 0.00 0.00 0.00 89 1018.0
20260901211347 73 334 1.7 0.0 0.00 0.00 0.00 89 1018.0
20260901211315 73 334 1.7 0.0 0.00 0.00 0.00 89 1018.0
20260901211305 73 334 1.7 1.7 0.00 0.00 0.00 89 1018.0
20260901211233 73 334 1.7 0.0 0.00 0.00 0.00 88 1018.0
20260901211213 73 334 0.0 0.0 0.00 0.00 0.00 88 1018.0
20260901211141 73 334 0.0 0.0 0.00 0.00 0.00 88 1018.0
20260901211039 73 334 0.0 0.0 0.00 0.00 0.00 88 1018.0
20260901211007 73 334 0.0 0.0 0.00 0.00 0.00 87 1018.0
20260901210936 73 334 0.0 0.0 0.00 0.00 0.00 87 1018.0
20260901210905 73 334 0.0 0.0 0.00 0.00 0.00 87 1018.0
20260901210844 73 334 0.0 0.0 0.00 0.00 0.00 88 1018.0
20260901210813 73 334 0.0 0.0 0.00 0.00 0.00 88 1018.0
20260901210741 73 334 0.0 0.0 0.00 0.00 0.00 88 1018.0
20260901210639 73 334 0.0 0.0 0.00 0.00 0.00 88 1018.0
20260901210629 73 334 0.0 0.0 0.00 0.00 0.00 89 1018.0
20260901210547 73 334 0.0 0.0 0.00 0.00 0.00 89 1018.0
20260901210515 73 334 0.0 0.0 0.00 0.00 0.00 89 1018.0
20260901210444 73 334 0.0 0.0 0.00 0.00 0.00 89 1018.0
20260901210412 73 334 0.0 0.0 0.00 0.00 0.00 89 1018.0
20260901210341 73 334 0.0 0.0 0.00 0.00 0.00 89 1018.0
20260901210310 73 334 0.0 0.0 0.00 0.00 0.00 89 1018.0
20260901210235 73 334 0.9 0.0 0.00 0.00 0.00 89 1018.0
20260901210224 73 334 0.0 0.0 0.00 0.00 0.00 89 1018.0
20260901210153 73 334 0.0 0.0 0.00 0.00 0.00 89 1018.0
20260901210143 73 334 0.0 0.0 0.00 0.00 0.00 88 1018.0
20260901210030 74 334 0.0 0.0 0.00 0.00 0.00 88 1018.0
20260901205958 74 334 0.0 0.0 0.00 0.00 0.00 88 1018.0
20260901205927 74 334 0.0 0.0 0.00 0.00 0.00 88 1018.0
20260901205849 74 334 0.0 0.0 0.00 0.00 0.00 88 1018.0
20260901205810 74 334 0.0 0.0 0.00 0.00 0.00 88 1018.0
20260901205736 74 334 0.0 0.0 0.00 0.00 0.00 88 1018.0
20260901205640 74 334 0.0 0.0 0.00 0.00 0.00 89 1018.0
20260901205530 74 334 0.0 0.0 0.00 0.00 0.00 89 1018.0
20260901205520 74 334 0.0 0.0 0.00 0.00 0.00 88 1018.0
20260901205449 74 334 0.0 0.0 0.00 0.00 0.00 88 1018.0
20260901205417 74 334 0.0 0.0 0.00 0.00 0.00 88 1018.0
20260901205339 74 334 0.0 0.0 0.00 0.00 0.00 88 1018.0
20260901205308 74 334 0.0 0.0 0.00 0.00 0.00 88 1018.0
20260901205236 74 334 0.0 0.0 0.00 0.00 0.00 88 1018.0
20260901205205 74 334 0.0 0.0 0.00 0.00 0.00 88 1018.0
20260901205134 74 334 0.0 0.0 0.00 0.00 0.00 88 1018.0
20260901205055 74 334 0.0 0.0 0.00 0.00 0.00 88 1018.0
20260901205024 74 334 0.0 0.0 0.00 0.00 0.00 88 1018.0
20260901204953 74 334 0.0 0.0 0.00 0.00 0.00 88 1018.0
20260901204914 74 334 0.0 0.0 0.00 0.00 0.00 88 1018.0
20260901204843 74 334 0.0 0.0 0.00 0.00 0.00 88 1018.0
20260901204812 74 334 0.0 0.0 0.00 0.00 0.00 88 1018.0
20260901204737 74 334 0.0 0.0 0.00 0.00 0.00 88 1018.0
20260901204631 74 334 0.0 0.0 0.00 0.00 0.00 87 1018.0
20260901204553 74 334 0.0 0.0 0.00 0.00 0.00 87 1018.0
20260901204511 74 334 0.0 0.0 0.00 0.00 0.00 87 1018.0
20260901204440 74 334 0.0 0.0 0.00 0.00 0.00 85 1018.0
20260901204408 74 334 0.0 0.0 0.00 0.00 0.00 85 1018.0
20260901204334 74 334 0.0 0.0 0.00 0.00 0.00 85 1018.0
20260901204302 74 334 0.0 0.0 0.00 0.00 0.00 85 1018.0
20260901204231 74 334 0.0 0.0 0.00 0.00 0.00 85 1018.0
20260901204200 74 334 0.0 0.0 0.00 0.00 0.00 85 1018.0
20260901204128 74 334 0.0 0.0 0.00 0.00 0.00 85 1018.0
20260901204119 74 334 0.0 0.0 0.00 0.00 0.00 87 1018.0
20260901204040 74 334 0.0 0.0 0.00 0.00 0.00 87 1018.0
20260901204008 74 334 0.0 0.0 0.00 0.00 0.00 87 1018.0
20260901203937 74 334 0.0 0.0 0.00 0.00 0.00 87 1018.0
20260901203906 74 334 0.0 0.0 0.00 0.00 0.00 87 1018.0
20260901203834 74 334 0.0 0.0 0.00 0.00 0.00 88 1018.0
20260901203803 74 334 0.0 0.0 0.00 0.00 0.00 88 1018.0
20260901203728 74 334 0.0 0.0 0.00 0.00 0.00 88 1018.0
20260901203626 74 334 0.0 0.0 0.00 0.00 0.00 88 1018.0
20260901203544 74 334 0.0 0.0 0.00 0.00 0.00 88 1018.0
20260901203502 75 334 1.7 0.0 0.00 0.00 0.00 87 1018.0
20260901203451 75 334 1.7 1.7 0.00 0.00 0.00 87 1018.0
20260901203420 75 334 1.7 0.0 0.00 0.00 0.00 87 1018.0
20260901203410 75 334 0.9 0.0 0.00 0.00 0.00 85 1018.0
20260901203338 75 334 0.9 0.0 0.00 0.00 0.00 85 1018.0
20260901203328 75 334 0.9 0.9 0.00 0.00 0.00 85 1018.0
20260901203257 75 334 0.0 0.0 0.00 0.00 0.00 84 1018.0
20260901203225 75 334 0.0 0.0 0.00 0.00 0.00 84 1018.0
20260901203154 75 334 0.0 0.0 0.00 0.00 0.00 84 1018.0
20260901203143 75 334 1.7 0.0 0.00 0.00 0.00 85 1018.0
20260901203133 75 334 0.0 0.0 0.00 0.00 0.00 85 1018.0
20260901203044 75 334 0.0 0.0 0.00 0.00 0.00 85 1018.0
20260901203013 75 334 0.0 0.0 0.00 0.00 0.00 85 1018.0
20260901202942 75 334 0.0 0.0 0.00 0.00 0.00 85 1018.0
20260901202910 75 334 0.0 0.0 0.00 0.00 0.00 85 1018.0
20260901202839 75 334 0.0 0.0 0.00 0.00 0.00 85 1018.0
20260901202804 75 334 0.0 0.0 0.00 0.00 0.00 85 1018.0
20260901202730 75 334 0.0 0.0 0.00 0.00 0.00 85 1018.0
20260901202651 75 334 0.0 0.0 0.00 0.00 0.00 85 1018.0
20260901202627 75 334 1.7 0.0 0.00 0.00 0.00 85 1018.0
20260901202616 75 334 1.7 1.7 0.00 0.00 0.00 85 1018.0
20260901202521 75 334 0.0 0.0 0.00 0.00 0.00 86 1018.0
20260901202449 75 334 0.0 0.0 0.00 0.00 0.00 86 1018.0
20260901202418 75 334 0.0 0.0 0.00 0.00 0.00 86 1018.0
20260901202357 75 334 0.0 0.0 0.00 0.00 0.00 87 1018.0
20260901202322 75 334 0.0 0.0 0.00 0.00 0.00 87 1018.0
20260901202251 75 334 0.0 0.0 0.00 0.00 0.00 87 1018.0
20260901202220 75 334 0.0 0.0 0.00 0.00 0.00 87 1018.0
20260901202148 75 334 0.0 0.0 0.00 0.00 0.00 87 1018.0
20260901202108 75 334 0.0 0.0 0.00 0.00 0.00 87 1018.0
20260901202028 75 334 0.0 0.0 0.00 0.00 0.00 87 1018.0
20260901201957 75 334 0.0 0.0 0.00 0.00 0.00 87 1018.0
20260901201926 75 334 0.0 0.0 0.00 0.00 0.00 87 1018.0
20260901201854 75 334 0.0 0.0 0.00 0.00 0.00 87 1018.0
20260901201823 75 334 0.0 0.0 0.00 0.00 0.00 87 1018.0
20260901201752 75 334 0.0 0.0 0.00 0.00 0.00 87 1018.0
20260901201714 75 334 0.0 0.0 0.00 0.00 0.00 87 1018.0
20260901201625 75 334 0.0 0.0 0.00 0.00 0.00 87 1018.0
20260901201522 75 334 0.0 0.0 0.00 0.00 0.00 87 1018.0
20260901201451 75 334 0.0 0.0 0.00 0.00 0.00 87 1018.0
20260901201419 75 334 0.0 0.0 0.00 0.00 0.00 87 1018.0
20260901201359 75 334 0.0 0.0 0.00 0.00 0.00 88 1018.0
20260901201327 75 334 0.0 0.0 0.00 0.00 0.00 87 1018.0
20260901201306 75 334 0.0 0.0 0.00 0.00 0.00 88 1018.0
20260901201246 75 334 0.0 0.0 0.00 0.00 0.00 87 1018.0
20260901201214 75 334 0.0 0.0 0.00 0.00 0.00 88 1018.0
20260901201146 75 334 0.0 0.0 0.00 0.00 0.00 87 1018.0
20260901201106 75 334 0.0 0.0 0.00 0.00 0.00 87 1018.0
20260901201026 75 334 0.0 0.0 0.00 0.00 0.00 88 1018.0
20260901200955 75 334 0.0 0.0 0.00 0.00 0.00 88 1018.0
20260901200924 75 334 0.0 0.0 0.00 0.00 0.00 87 1018.0
20260901200853 75 334 0.0 0.0 0.00 0.00 0.00 87 1018.0
20260901200832 75 334 1.7 0.0 0.00 0.00 0.00 87 1018.0
20260901200811 75 334 0.9 0.0 0.00 0.00 0.00 87 1018.0
20260901200750 75 334 0.0 0.0 0.00 0.00 0.00 87 1018.0
20260901200719 75 334 0.0 0.0 0.00 0.00 0.00 87 1018.0
20260901200647 75 334 0.0 0.0 0.00 0.00 0.00 87 1018.0
20260901200616 75 334 0.0 0.0 0.00 0.00 0.00 87 1018.0
20260901200534 75 334 0.0 0.0 0.00 0.00 0.00 87 1018.0
20260901200452 75 334 0.0 0.0 0.00 0.00 0.00 87 1018.0
20260901200421 75 334 0.0 0.0 0.00 0.00 0.00 87 1018.0
20260901200350 75 334 0.0 0.0 0.00 0.00 0.00 87 1018.0
20260901200318 75 334 0.0 0.0 0.00 0.00 0.00 87 1018.0
20260901200247 75 334 0.0 0.0 0.00 0.00 0.00 87 1018.0
20260901200216 75 334 0.0 0.0 0.00 0.00 0.00 87 1018.0
20260901200144 75 334 0.0 0.0 0.00 0.00 0.00 87 1018.0
20260901200105 75 334 0.0 0.0 0.00 0.00 0.00 87 1018.0
20260901200024 75 334 0.0 0.0 0.00 0.00 0.00 87 1018.0
20260901195953 75 334 0.0 0.0 0.00 0.00 0.00 87 1018.0
20260901195922 75 334 0.0 0.0 0.00 0.00 0.00 87 1018.0
20260901195850 75 334 0.0 0.0 0.00 0.00 0.00 87 1018.0
20260901195815 75 334 0.0 0.0 0.00 0.00 0.00 87 1018.0
20260901195744 75 334 0.0 0.0 0.00 0.00 0.00 87 1018.0
20260901195706 75 334 0.0 0.0 0.00 0.00 0.00 87 1018.0
20260901195624 75 334 0.0 0.0 0.00 0.00 0.00 87 1018.0
20260901195604 75 334 0.0 0.0 0.00 0.00 0.00 86 1018.0
20260901195511 75 334 0.0 0.0 0.00 0.00 0.00 86 1018.0
20260901195450 75 334 0.9 0.0 0.00 0.00 0.00 86 1018.0
20260901195440 75 334 0.9 0.9 0.00 0.00 0.00 86 1018.0
20260901195429 75 334 0.0 0.0 0.00 0.00 0.00 86 1018.0
20260901195358 75 334 0.0 0.0 0.00 0.00 0.00 86 1018.0
20260901195327 75 334 0.0 0.0 0.00 0.00 0.00 86 1018.0
20260901195306 75 334 0.9 0.0 0.00 0.00 0.00 86 1018.0
20260901195245 75 334 1.7 0.0 0.00 0.00 0.00 86 1018.0
20260901195234 75 334 0.0 0.0 0.00 0.00 0.00 86 1018.0
20260901195203 75 334 0.0 0.0 0.00 0.00 0.00 86 1018.0
20260901195132 75 334 0.0 0.0 0.00 0.00 0.00 86 1018.0
20260901195111 75 334 0.9 0.0 0.00 0.00 0.00 86 1018.0
20260901195059 75 334 0.9 0.0 0.00 0.00 0.00 87 1018.0
20260901195015 75 334 1.7 0.0 0.00 0.00 0.00 87 1018.0
20260901195005 75 334 1.7 1.7 0.00 0.00 0.00 87 1018.0
20260901194944 75 334 0.9 0.0 0.00 0.00 0.00 87 1018.0
20260901194923 75 334 0.0 0.0 0.00 0.00 0.00 87 1018.0
20260901194902 75 334 0.9 0.0 0.00 0.00 0.00 87 1018.0
20260901194852 75 334 0.9 0.9 0.00 0.00 0.00 87 1018.0
20260901194831 75 334 1.7 0.0 0.00 0.00 0.00 87 1018.0
20260901194810 75 334 0.0 0.0 0.00 0.00 0.00 87 1018.0
20260901194739 75 334 0.0 0.0 0.00 0.00 0.00 87 1018.0
20260901194707 75 334 0.0 0.0 0.00 0.00 0.00 87 1018.0
20260901194633 75 334 0.0 0.0 0.00 0.00 0.00 87 1018.0
20260901194559 75 334 0.0 0.0 0.00 0.00 0.00 87 1018.0
20260901194455 75 334 0.0 0.0 0.00 0.00 0.00 87 1018.0
20260901194424 75 334 0.0 0.0 0.00 0.00 0.00 87 1018.0
20260901194349 75 334 0.0 0.0 0.00 0.00 0.00 87 1018.0
20260901194318 75 334 0.0 0.0 0.00 0.00 0.00 87 1018.0
20260901194246 75 334 0.0 0.0 0.00 0.00 0.00 87 1018.0
20260901194215 75 334 0.0 0.0 0.00 0.00 0.00 87 1018.0
20260901194144 75 334 0.0 0.0 0.00 0.00 0.00 87 1018.0
20260901194112 75 334 0.0 0.0 0.00 0.00 0.00 87 1018.0
20260901194020 75 334 0.0 0.0 0.00 0.00 0.00 86 1018.0
20260901193949 75 334 0.0 0.0 0.00 0.00 0.00 86 1018.0
20260901193917 75 334 0.0 0.0 0.00 0.00 0.00 86 1018.0
20260901193846 75 334 0.0 0.0 0.00 0.00 0.00 86 1018.0
20260901193814 75 334 0.0 0.0 0.00 0.00 0.00 86 1018.0
20260901191551 75 334 0.0 0.0 0.00 0.00 0.00 86 1018.0
20260901182203 76 334 0.0 0.0 0.00 1.01 1.01 83
20260901180203 78 334 0.0 0.0 0.00 1.01 1.01 80
20260901174327 78 333 0.9 1.7 0.00 1.01 1.01 2
20260901173327 78 333 1.7 1.7 0.00 1.01 1.01 2
20260901171616 79 334 1.7 1.7 0.00 1.01 1.01 12
20260901170616 79 334 0.9 1.7 0.00 1.01 1.01 12
20260901165616 80 334 0.9 1.7 0.00 1.01 1.01 12